| time (UTC) | temp C | wind direction | speed KPH | gust KPH | rain 1hr cm | rain 24hr cm | rain mn cm | humidity % | barometer mb |
| 20260507192016 | 17 | 228 | 6.4 | 29.0 | 0.00 | 2.06 | 2.06 | 58 | 1001.3 |
| 20260507191905 | 16 | 235 | 16.1 | 29.0 | 0.00 | 2.06 | 2.06 | 57 | 1001.3 |
| 20260507191703 | 17 | 242 | 19.3 | 29.0 | 0.00 | 2.06 | 2.06 | 57 | 1001.2 |
| 20260507191616 | 17 | 250 | 12.9 | 32.2 | 0.00 | 2.06 | 2.06 | 57 | 1001.0 |
| 20260507191605 | 17 | 253 | 12.9 | 32.2 | 0.00 | 2.06 | 2.06 | 57 | 1001.0 |
| 20260507191505 | 17 | 252 | 9.7 | 32.2 | 0.00 | 2.06 | 2.06 | 57 | 1000.9 |
| 20260507191303 | 17 | 239 | 12.9 | 35.4 | 0.00 | 2.06 | 2.06 | 57 | 1001.0 |
| 20260507191215 | 17 | 232 | 11.3 | 35.4 | 0.00 | 2.06 | 2.06 | 57 | 1000.8 |
| 20260507191205 | 17 | 230 | 11.3 | 35.4 | 0.00 | 2.06 | 2.06 | 57 | 1000.8 |
| 20260507191119 | 17 | 230 | 17.7 | 35.4 | 0.00 | 2.06 | 2.06 | 57 | 1000.5 |
| 20260507191104 | 17 | 229 | 17.7 | 35.4 | 0.00 | 2.06 | 2.06 | 57 | 1000.5 |
| 20260507190803 | 17 | 235 | 12.9 | 37.0 | 0.00 | 2.06 | 2.06 | 56 | 1000.6 |
| 20260507190704 | 17 | 238 | 12.9 | 37.0 | 0.00 | 2.06 | 2.06 | 56 | 1000.4 |
| 20260507190603 | 17 | 238 | 17.7 | 37.0 | 0.00 | 2.06 | 2.06 | 56 | 1000.4 |
| 20260507190505 | 17 | 242 | 16.1 | 37.0 | 0.00 | 2.06 | 2.06 | 56 | 1000.5 |
| 20260507190414 | 17 | 236 | 17.7 | 37.0 | 0.00 | 2.06 | 2.06 | 56 | 1000.4 |
| 20260507190404 | 17 | 232 | 17.7 | 37.0 | 0.00 | 2.06 | 2.06 | 56 | 1000.4 |
| 20260507190303 | 17 | 230 | 20.9 | 37.0 | 0.00 | 2.06 | 2.06 | 56 | 1000.7 |
| 20260507190105 | 17 | 230 | 12.9 | 37.0 | 0.00 | 2.06 | 2.06 | 57 | 1000.1 |
| 20260507190006 | 16 | 234 | 14.5 | 37.0 | 0.00 | 2.06 | 2.06 | 56 | 999.9 |
| 20260507185903 | 16 | 239 | 16.1 | 37.0 | 0.00 | 2.06 | 2.06 | 57 | 1000.1 |
| 20260507185805 | 16 | 239 | 16.1 | 37.0 | 0.00 | 2.06 | 2.06 | 56 | 999.9 |
| 20260507185714 | 16 | 238 | 17.7 | 33.8 | 0.00 | 2.06 | 2.06 | 57 | 1000.1 |
| 20260507185703 | 16 | 241 | 17.7 | 33.8 | 0.00 | 2.06 | 2.06 | 57 | 1000.1 |
| 20260507185605 | 16 | 245 | 16.1 | 33.8 | 0.00 | 2.06 | 2.06 | 56 | 1000.1 |
| 20260507185517 | 16 | 248 | 19.3 | 33.8 | 0.00 | 2.06 | 2.06 | 57 | 1000.3 |
| 20260507185405 | 17 | 240 | 9.7 | 29.0 | 0.00 | 2.06 | 2.06 | 57 | 1000.3 |
| 20260507185205 | 16 | 227 | 17.7 | 29.0 | 0.00 | 2.06 | 2.06 | 57 | 1000.0 |
| 20260507185103 | 16 | 230 | 17.7 | 29.0 | 0.00 | 2.06 | 2.06 | 57 | 1000.1 |
| 20260507185004 | 17 | 211 | 14.5 | 25.7 | 0.00 | 2.06 | 2.06 | 56 | 1000.2 |
| 20260507184804 | 17 | 236 | 16.1 | 29.0 | 0.00 | 2.06 | 2.06 | 56 | 1000.1 |
| 20260507184704 | 17 | 238 | 16.1 | 29.0 | 0.00 | 2.06 | 2.06 | 56 | 1000.2 |
| 20260507184603 | 17 | 227 | 14.5 | 29.0 | 0.00 | 2.06 | 2.06 | 56 | 1000.4 |
| 20260507184517 | 17 | 244 | 12.9 | 29.0 | 0.00 | 2.06 | 2.06 | 57 | 1000.2 |
| 20260507184421 | 17 | 243 | 16.1 | 29.0 | 0.00 | 2.06 | 2.06 | 56 | 1000.1 |
| 20260507184405 | 17 | 242 | 16.1 | 29.0 | 0.00 | 2.06 | 2.06 | 56 | 1000.1 |
| 20260507184218 | 17 | 239 | 12.9 | 29.0 | 0.00 | 2.06 | 2.06 | 57 | 1000.3 |
| 20260507184104 | 17 | 247 | 16.1 | 29.0 | 0.00 | 2.06 | 2.06 | 58 | 1000.2 |
| 20260507183904 | 17 | 239 | 11.3 | 27.4 | 0.00 | 2.06 | 2.06 | 57 | 1000.1 |
| 20260507183804 | 16 | 239 | 8.0 | 27.4 | 0.00 | 2.06 | 2.06 | 58 | 1000.1 |
| 20260507183704 | 16 | 231 | 17.7 | 27.4 | 0.00 | 2.06 | 2.06 | 58 | 1000.1 |
| 20260507183604 | 16 | 226 | 17.7 | 25.7 | 0.00 | 2.06 | 2.06 | 58 | 1000.1 |
| 20260507183504 | 16 | 223 | 14.5 | 25.7 | 0.00 | 2.06 | 2.06 | 58 | 999.7 |
| 20260507183403 | 16 | 235 | 16.1 | 33.8 | 0.00 | 2.06 | 2.06 | 58 | 1000.0 |
| 20260507183307 | 16 | 241 | 16.1 | 33.8 | 0.00 | 2.06 | 2.06 | 58 | 999.8 |
| 20260507183204 | 16 | 256 | 12.9 | 33.8 | 0.00 | 2.06 | 2.06 | 58 | 999.8 |
| 20260507183103 | 16 | 258 | 11.3 | 33.8 | 0.00 | 2.06 | 2.06 | 58 | 999.5 |
| 20260507183007 | 16 | 260 | 14.5 | 33.8 | 0.00 | 2.06 | 2.06 | 59 | 999.8 |
| 20260507182904 | 16 | 245 | 24.1 | 33.8 | 0.00 | 2.06 | 2.06 | 58 | 999.8 |
| 20260507182807 | 16 | 247 | 12.9 | 29.0 | 0.00 | 2.06 | 2.06 | 58 | 999.8 |
| 20260507182704 | 16 | 242 | 14.5 | 29.0 | 0.00 | 2.06 | 2.06 | 59 | 999.8 |
| 20260507182604 | 16 | 237 | 12.9 | 29.0 | 0.00 | 2.06 | 2.06 | 59 | 1000.0 |
| 20260507182404 | 16 | 234 | 16.1 | 27.4 | 0.00 | 2.06 | 2.06 | 58 | 1000.2 |
| 20260507182306 | 16 | 230 | 17.7 | 29.0 | 0.00 | 2.06 | 2.06 | 58 | 1000.1 |
| 20260507182203 | 16 | 223 | 6.4 | 33.8 | 0.00 | 2.06 | 2.06 | 60 | 1000.6 |
| 20260507182103 | 16 | 224 | 12.9 | 33.8 | 0.00 | 2.06 | 2.06 | 60 | 1000.4 |
| 20260507182006 | 16 | 221 | 14.5 | 33.8 | 0.00 | 2.06 | 2.06 | 60 | 1000.9 |
| 20260507181904 | 16 | 230 | 17.7 | 33.8 | 0.00 | 2.06 | 2.06 | 60 | 1000.9 |
| 20260507181804 | 16 | 233 | 12.9 | 33.8 | 0.00 | 2.06 | 2.06 | 60 | 1001.2 |
| 20260507181704 | 16 | 239 | 20.9 | 33.8 | 0.00 | 2.06 | 2.06 | 60 | 1001.3 |
| 20260507181617 | 16 | 236 | 6.4 | 25.7 | 0.00 | 2.06 | 2.06 | 61 | 1001.1 |
| 20260507181603 | 16 | 233 | 6.4 | 25.7 | 0.00 | 2.06 | 2.06 | 61 | 1001.1 |
| 20260507181505 | 16 | 226 | 9.7 | 25.7 | 0.00 | 2.06 | 2.06 | 62 | 1001.1 |
| 20260507181303 | 16 | 227 | 8.0 | 25.7 | 0.00 | 2.06 | 2.06 | 62 | 1000.8 |
| 20260507181204 | 16 | 231 | 16.1 | 25.7 | 0.00 | 2.06 | 2.06 | 61 | 1000.7 |
| 20260507181106 | 16 | 235 | 17.7 | 25.7 | 0.00 | 2.06 | 2.06 | 61 | 1000.8 |
| 20260507181005 | 15 | 243 | 14.5 | 24.1 | 0.00 | 2.06 | 2.06 | 62 | 1000.8 |
| 20260507180905 | 16 | 238 | 11.3 | 24.1 | 0.00 | 2.06 | 2.06 | 62 | 1001.0 |
| 20260507180804 | 16 | 232 | 14.5 | 22.5 | 0.00 | 2.06 | 2.06 | 63 | 1001.0 |
| 20260507180704 | 16 | 229 | 11.3 | 20.9 | 0.00 | 2.06 | 2.06 | 62 | 1000.9 |
| 20260507180603 | 16 | 229 | 8.0 | 20.9 | 0.00 | 2.06 | 2.06 | 63 | 1001.2 |
| 20260507180505 | 16 | 239 | 8.0 | 20.9 | 0.00 | 2.06 | 2.06 | 63 | 1001.2 |
| 20260507180403 | 16 | 242 | 11.3 | 20.9 | 0.00 | 2.06 | 2.06 | 62 | 1001.0 |
| 20260507180303 | 16 | 249 | 6.4 | 20.9 | 0.00 | 2.06 | 2.06 | 62 | 1001.1 |
| 20260507180217 | 16 | 245 | 11.3 | 20.9 | 0.00 | 2.06 | 2.06 | 62 | 1001.3 |
| 20260507180206 | 16 | 245 | 11.3 | 20.9 | 0.00 | 2.06 | 2.06 | 62 | 1001.1 |
| 20260507180103 | 16 | 241 | 6.4 | 17.7 | 0.00 | 2.06 | 2.06 | 63 | 1001.4 |
| 20260507175905 | 16 | 240 | 9.7 | 17.7 | 0.00 | 2.06 | 2.06 | 63 | 1001.2 |
| 20260507175804 | 16 | 240 | 6.4 | 17.7 | 0.00 | 2.06 | 2.06 | 64 | 1001.4 |
| 20260507175703 | 15 | 246 | 8.0 | 17.7 | 0.00 | 2.06 | 2.06 | 64 | 1001.2 |
| 20260507175605 | 15 | 249 | 12.9 | 17.7 | 0.00 | 2.06 | 2.06 | 64 | 1001.1 |
| 20260507175503 | 15 | 245 | 11.3 | 17.7 | 0.00 | 2.06 | 2.06 | 65 | 1001.1 |
| 20260507175404 | 15 | 244 | 8.0 | 17.7 | 0.00 | 2.06 | 2.06 | 65 | 1001.3 |
| 20260507175306 | 15 | 240 | 6.4 | 17.7 | 0.00 | 2.06 | 2.06 | 65 | 1000.9 |
| 20260507175204 | 15 | 244 | 6.4 | 20.9 | 0.00 | 2.06 | 2.06 | 65 | 1001.2 |
| 20260507175104 | 15 | 244 | 8.0 | 22.5 | 0.00 | 2.06 | 2.06 | 65 | 1001.1 |
| 20260507175004 | 15 | 240 | 6.4 | 24.1 | 0.00 | 2.06 | 2.06 | 65 | 1001.2 |
| 20260507174807 | 15 | 249 | 6.4 | 24.1 | 0.00 | 2.06 | 2.06 | 65 | 1001.3 |
| 20260507174705 | 15 | 246 | 11.3 | 24.1 | 0.00 | 2.06 | 2.06 | 65 | 1001.6 |
| 20260507174504 | 15 | 244 | 11.3 | 24.1 | 0.00 | 2.06 | 2.06 | 66 | 1001.7 |
| 20260507174416 | 15 | 240 | 11.3 | 17.7 | 0.00 | 2.06 | 2.06 | 66 | 1002.0 |
| 20260507174404 | 15 | 237 | 11.3 | 17.7 | 0.00 | 2.06 | 2.06 | 66 | 1002.0 |
| 20260507174306 | 15 | 240 | 6.4 | 17.7 | 0.00 | 2.06 | 2.06 | 66 | 1002.0 |
| 20260507174214 | 15 | 243 | 12.9 | 17.7 | 0.00 | 2.06 | 2.06 | 65 | 1002.0 |
| 20260507174103 | 15 | 244 | 6.4 | 17.7 | 0.00 | 2.06 | 2.06 | 67 | 1002.2 |
| 20260507174016 | 15 | 243 | 6.4 | 17.7 | 0.00 | 2.06 | 2.06 | 67 | 1002.2 |
| 20260507173904 | 15 | 246 | 11.3 | 17.7 | 0.00 | 2.06 | 2.06 | 66 | 1002.2 |
| 20260507173705 | 15 | 240 | 9.7 | 17.7 | 0.00 | 2.06 | 2.06 | 66 | 1002.3 |
| 20260507173603 | 15 | 244 | 6.4 | 17.7 | 0.00 | 2.06 | 2.06 | 66 | 1002.3 |
| 20260507173505 | 15 | 245 | 9.7 | 17.7 | 0.00 | 2.06 | 2.06 | 66 | 1002.3 |
| 20260507173405 | 15 | 236 | 11.3 | 17.7 | 0.00 | 2.06 | 2.06 | 66 | 1002.6 |
| 20260507173305 | 15 | 239 | 6.4 | 17.7 | 0.00 | 2.06 | 2.06 | 66 | 1002.3 |
| 20260507173204 | 15 | 235 | 6.4 | 17.7 | 0.00 | 2.06 | 2.06 | 66 | 1002.3 |
| 20260507173103 | 15 | 236 | 11.3 | 22.5 | 0.00 | 2.06 | 2.06 | 66 | 1002.2 |
| 20260507173004 | 15 | 232 | 11.3 | 24.1 | 0.00 | 2.06 | 2.06 | 66 | 1002.3 |
| 20260507172907 | 15 | 235 | 6.4 | 24.1 | 0.00 | 2.06 | 2.06 | 66 | 1002.5 |
| 20260507172814 | 15 | 233 | 8.0 | 24.1 | 0.00 | 2.06 | 2.06 | 66 | 1002.5 |
| 20260507172804 | 15 | 232 | 8.0 | 24.1 | 0.00 | 2.06 | 2.06 | 66 | 1002.5 |
| 20260507172704 | 15 | 234 | 11.3 | 24.1 | 0.00 | 2.06 | 2.06 | 65 | 1002.3 |
| 20260507172515 | 15 | 242 | 8.0 | 22.5 | 0.00 | 2.06 | 2.06 | 66 | 1002.6 |
| 20260507172504 | 15 | 240 | 8.0 | 22.5 | 0.00 | 2.06 | 2.06 | 66 | 1002.6 |
| 20260507172404 | 15 | 234 | 8.0 | 22.5 | 0.00 | 2.06 | 2.06 | 66 | 1002.7 |
| 20260507172216 | 15 | 233 | 12.9 | 24.1 | 0.00 | 2.06 | 2.06 | 65 | 1002.8 |
| 20260507172205 | 15 | 236 | 12.9 | 24.1 | 0.00 | 2.06 | 2.06 | 65 | 1002.7 |
| 20260507172104 | 15 | 235 | 12.9 | 24.1 | 0.00 | 2.06 | 2.06 | 66 | 1002.9 |
| 20260507171805 | 15 | 248 | 16.1 | 29.0 | 0.00 | 2.06 | 2.06 | 66 | 1002.9 |
| 20260507171703 | 15 | 244 | 12.9 | 29.0 | 0.00 | 2.06 | 2.06 | 66 | 1003.0 |
| 20260507171603 | 15 | 236 | 11.3 | 29.0 | 0.00 | 2.06 | 2.06 | 66 | 1003.1 |
| 20260507171505 | 15 | 239 | 12.9 | 29.0 | 0.00 | 2.06 | 2.06 | 66 | 1002.7 |
| 20260507171406 | 15 | 245 | 11.3 | 25.7 | 0.00 | 2.06 | 2.06 | 67 | 1002.9 |
| 20260507171304 | 15 | 248 | 9.7 | 25.7 | 0.00 | 2.06 | 2.06 | 66 | 1003.1 |
| 20260507171204 | 15 | 257 | 8.0 | 25.7 | 0.00 | 2.06 | 2.06 | 67 | 1003.1 |
| 20260507171104 | 15 | 260 | 8.0 | 25.7 | 0.00 | 2.06 | 2.06 | 67 | 1003.0 |
| 20260507171003 | 15 | 257 | 9.7 | 25.7 | 0.00 | 2.06 | 2.06 | 67 | 1003.0 |
| 20260507170905 | 15 | 259 | 12.9 | 25.7 | 0.00 | 2.06 | 2.06 | 67 | 1003.0 |
| 20260507170805 | 15 | 259 | 14.5 | 25.7 | 0.00 | 2.06 | 2.06 | 66 | 1003.0 |
| 20260507170703 | 15 | 254 | 8.0 | 22.5 | 0.00 | 2.06 | 2.06 | 67 | 1003.0 |
| 20260507170605 | 15 | 249 | 6.4 | 22.5 | 0.00 | 2.06 | 2.06 | 67 | 1002.9 |
| 20260507170504 | 15 | 243 | 9.7 | 22.5 | 0.00 | 2.06 | 2.06 | 67 | 1003.1 |
| 20260507170404 | 15 | 235 | 12.9 | 22.5 | 0.00 | 2.06 | 2.06 | 67 | 1003.1 |
| 20260507170303 | 15 | 230 | 9.7 | 22.5 | 0.00 | 2.06 | 2.06 | 67 | 1003.1 |
| 20260507170204 | 15 | 231 | 12.9 | 22.5 | 0.00 | 2.06 | 2.06 | 67 | 1003.2 |
| 20260507170106 | 15 | 230 | 9.7 | 20.9 | 0.00 | 2.06 | 2.06 | 67 | 1003.3 |
| 20260507170004 | 15 | 226 | 11.3 | 20.9 | 0.00 | 2.06 | 2.06 | 67 | 1003.3 |
| 20260507165904 | 15 | 234 | 12.9 | 20.9 | 0.00 | 2.06 | 2.06 | 67 | 1003.5 |
| 20260507165817 | 15 | 238 | 12.9 | 20.9 | 0.00 | 2.06 | 2.06 | 67 | 1003.6 |
| 20260507165804 | 15 | 241 | 8.0 | 20.9 | 0.00 | 2.06 | 2.06 | 67 | 1003.5 |
| 20260507165715 | 15 | 243 | 9.7 | 20.9 | 0.00 | 2.06 | 2.06 | 67 | 1003.8 |
| 20260507165704 | 15 | 242 | 9.7 | 20.9 | 0.00 | 2.06 | 2.06 | 67 | 1003.8 |
| 20260507165518 | 15 | 247 | 12.9 | 20.9 | 0.00 | 2.06 | 2.06 | 67 | 1003.8 |
| 20260507165406 | 15 | 243 | 11.3 | 20.9 | 0.00 | 2.06 | 2.06 | 67 | 1003.7 |
| 20260507165205 | 15 | 232 | 9.7 | 17.7 | 0.00 | 2.06 | 2.06 | 67 | 1003.9 |
| 20260507165104 | 15 | 240 | 9.7 | 20.9 | 0.00 | 2.06 | 2.06 | 67 | 1003.8 |
| 20260507165016 | 15 | 246 | 11.3 | 20.9 | 0.00 | 2.06 | 2.06 | 67 | 1003.6 |
| 20260507165004 | 15 | 245 | 6.4 | 20.9 | 0.00 | 2.06 | 2.06 | 67 | 1003.9 |
| 20260507164904 | 15 | 244 | 12.9 | 20.9 | 0.00 | 2.06 | 2.06 | 67 | 1003.7 |
| 20260507164818 | 15 | 247 | 6.4 | 20.9 | 0.00 | 2.06 | 2.06 | 67 | 1004.1 |
| 20260507164705 | 15 | 252 | 9.7 | 20.9 | 0.00 | 2.06 | 2.06 | 67 | 1003.8 |
| 20260507164615 | 15 | 246 | 12.9 | 20.9 | 0.00 | 2.06 | 2.06 | 67 | 1003.8 |
| 20260507164504 | 15 | 243 | 9.7 | 17.7 | 0.00 | 2.06 | 2.06 | 67 | 1003.5 |
| 20260507164305 | 15 | 243 | 8.0 | 14.5 | 0.00 | 2.06 | 2.06 | 68 | 1003.6 |
| 20260507164205 | 15 | 242 | 9.7 | 14.5 | 0.00 | 2.06 | 2.06 | 68 | 1003.8 |
| 20260507164003 | 15 | 245 | 6.4 | 12.9 | 0.00 | 2.06 | 2.06 | 69 | 1003.5 |
| 20260507163906 | 15 | 257 | 6.4 | 17.7 | 0.00 | 2.06 | 2.06 | 69 | 1003.4 |
| 20260507163804 | 15 | 256 | 6.4 | 20.9 | 0.00 | 2.06 | 2.06 | 69 | 1003.4 |
| 20260507163605 | 15 | 250 | 6.4 | 20.9 | 0.00 | 2.06 | 2.06 | 69 | 1003.4 |
| 20260507163504 | 15 | 250 | 4.8 | 20.9 | 0.00 | 2.06 | 2.06 | 69 | 1003.4 |
| 20260507163404 | 15 | 241 | 12.9 | 20.9 | 0.00 | 2.06 | 2.06 | 68 | 1003.5 |
| 20260507163304 | 15 | 241 | 11.3 | 20.9 | 0.00 | 2.06 | 2.06 | 68 | 1003.4 |
| 20260507163204 | 15 | 246 | 11.3 | 20.9 | 0.00 | 2.06 | 2.06 | 69 | 1003.4 |
| 20260507163103 | 15 | 260 | 12.9 | 20.9 | 0.00 | 2.06 | 2.06 | 69 | 1003.5 |
| 20260507163004 | 15 | 265 | 12.9 | 20.9 | 0.00 | 2.06 | 2.06 | 69 | 1003.6 |
| 20260507162903 | 15 | 272 | 11.3 | 20.9 | 0.00 | 2.06 | 2.06 | 69 | 1003.5 |
| 20260507162805 | 15 | 278 | 11.3 | 20.9 | 0.00 | 2.06 | 2.06 | 69 | 1003.6 |
| 20260507162704 | 15 | 271 | 12.9 | 20.9 | 0.00 | 2.06 | 2.06 | 69 | 1003.7 |
| 20260507162603 | 15 | 268 | 9.7 | 20.9 | 0.00 | 2.06 | 2.06 | 69 | 1003.6 |
| 20260507162504 | 15 | 255 | 8.0 | 20.9 | 0.00 | 2.06 | 2.06 | 69 | 1003.7 |
| 20260507162405 | 15 | 251 | 8.0 | 20.9 | 0.00 | 2.06 | 2.06 | 69 | 1003.5 |
| 20260507162307 | 15 | 249 | 8.0 | 20.9 | 0.00 | 2.06 | 2.06 | 69 | 1003.4 |
| 20260507162203 | 15 | 251 | 8.0 | 20.9 | 0.00 | 2.06 | 2.06 | 69 | 1003.5 |
| 20260507162105 | 15 | 240 | 11.3 | 20.9 | 0.00 | 2.06 | 2.06 | 69 | 1003.7 |
| 20260507162004 | 15 | 244 | 12.9 | 17.7 | 0.00 | 2.06 | 2.06 | 69 | 1003.4 |
| 20260507161907 | 15 | 245 | 9.7 | 17.7 | 0.00 | 2.06 | 2.06 | 69 | 1003.4 |
| 20260507161803 | 15 | 218 | 6.4 | 32.2 | 0.00 | 2.06 | 2.06 | 69 | 1003.3 |
| 20260507161703 | 15 | 219 | 9.7 | 32.2 | 0.00 | 2.06 | 2.06 | 69 | 1003.1 |
| 20260507161603 | 15 | 224 | 12.9 | 32.2 | 0.00 | 2.06 | 2.06 | 69 | 1002.9 |
| 20260507161505 | 15 | 222 | 9.7 | 32.2 | 0.00 | 2.06 | 2.06 | 69 | 1003.0 |
| 20260507161403 | 14 | 227 | 17.7 | 32.2 | 0.00 | 2.06 | 2.06 | 68 | 1002.9 |
| 20260507161305 | 14 | 244 | 14.5 | 24.1 | 0.00 | 2.06 | 2.06 | 69 | 1002.8 |
| 20260507161203 | 14 | 246 | 17.7 | 24.1 | 0.00 | 2.06 | 2.06 | 69 | 1002.8 |
| 20260507161103 | 14 | 244 | 16.1 | 22.5 | 0.00 | 2.06 | 2.06 | 69 | 1002.9 |
| 20260507161005 | 14 | 249 | 12.9 | 25.7 | 0.00 | 2.06 | 2.06 | 69 | 1002.7 |
| 20260507160913 | 14 | 236 | 9.7 | 25.7 | 0.00 | 2.06 | 2.06 | 69 | 1002.8 |
| 20260507160903 | 14 | 233 | 9.7 | 25.7 | 0.00 | 2.06 | 2.06 | 69 | 1002.8 |
| 20260507160803 | 14 | 228 | 12.9 | 25.7 | 0.00 | 2.06 | 2.06 | 69 | 1002.6 |
| 20260507160603 | 14 | 225 | 11.3 | 25.7 | 0.00 | 2.06 | 2.06 | 70 | 1002.7 |
| 20260507160503 | 14 | 217 | 14.5 | 25.7 | 0.00 | 2.06 | 2.06 | 70 | 1002.4 |
| 20260507160404 | 14 | 213 | 6.4 | 22.5 | 0.00 | 2.06 | 2.06 | 71 | 1002.5 |
| 20260507160304 | 14 | 219 | 12.9 | 22.5 | 0.00 | 2.06 | 2.06 | 70 | 1002.7 |
| 20260507160218 | 14 | 223 | 8.0 | 20.9 | 0.00 | 2.06 | 2.06 | 70 | 1002.6 |
| 20260507160204 | 14 | 225 | 8.0 | 17.7 | 0.00 | 2.06 | 2.06 | 70 | 1002.4 |
| 20260507160106 | 14 | 234 | 6.4 | 20.9 | 0.00 | 2.06 | 2.06 | 70 | 1002.7 |
| 20260507155907 | 14 | 252 | 12.9 | 20.9 | 0.00 | 2.06 | 2.06 | 70 | 1002.6 |
| 20260507155805 | 14 | 251 | 11.3 | 20.9 | 0.00 | 2.06 | 2.06 | 70 | 1002.6 |
| 20260507155706 | 14 | 256 | 11.3 | 20.9 | 0.00 | 2.06 | 2.06 | 70 | 1002.3 |
| 20260507155615 | 14 | 261 | 9.7 | 20.9 | 0.00 | 2.06 | 2.06 | 70 | 1002.4 |
| 20260507155604 | 14 | 262 | 9.7 | 20.9 | 0.00 | 2.06 | 2.06 | 70 | 1002.4 |
| 20260507155506 | 14 | 260 | 6.4 | 20.9 | 0.00 | 2.06 | 2.06 | 70 | 1002.4 |
| 20260507155206 | 14 | 258 | 9.7 | 20.9 | 0.00 | 2.06 | 2.06 | 69 | 1002.1 |
| 20260507155104 | 14 | 253 | 9.7 | 20.9 | 0.00 | 2.06 | 2.06 | 69 | 1002.1 |
| 20260507155016 | 14 | 254 | 8.0 | 20.9 | 0.00 | 2.06 | 2.06 | 69 | 1002.1 |
| 20260507155005 | 14 | 252 | 12.9 | 17.7 | 0.00 | 2.06 | 2.06 | 69 | 1001.9 |
| 20260507154905 | 14 | 241 | 9.7 | 17.7 | 0.00 | 2.06 | 2.06 | 69 | 1001.9 |
| 20260507154708 | 14 | 240 | 8.0 | 17.7 | 0.00 | 2.06 | 2.06 | 69 | 1001.9 |
| 20260507154603 | 14 | 229 | 6.4 | 14.5 | 0.00 | 2.06 | 2.06 | 70 | 1001.9 |
| 20260507154404 | 14 | 238 | 6.4 | 17.7 | 0.00 | 2.06 | 2.06 | 70 | 1001.6 |
| 20260507154309 | 14 | 235 | 6.4 | 17.7 | 0.00 | 2.06 | 2.06 | 70 | 1001.7 |
| 20260507154205 | 14 | 229 | 6.4 | 17.7 | 0.00 | 2.06 | 2.06 | 70 | 1001.4 |
| 20260507154103 | 14 | 231 | 4.8 | 17.7 | 0.00 | 2.06 | 2.06 | 70 | 1001.7 |
| 20260507154004 | 14 | 226 | 4.8 | 17.7 | 0.00 | 2.06 | 2.06 | 70 | 1001.4 |
| 20260507153903 | 14 | 228 | 9.7 | 17.7 | 0.00 | 2.06 | 2.06 | 70 | 1001.6 |
| 20260507153805 | 14 | 227 | 9.7 | 17.7 | 0.00 | 2.06 | 2.06 | 70 | 1001.9 |
| 20260507153707 | 14 | 232 | 9.7 | 17.7 | 0.00 | 2.06 | 2.06 | 70 | 1001.9 |
| 20260507153504 | 14 | 238 | 8.0 | 24.1 | 0.00 | 2.06 | 2.06 | 71 | 1002.0 |
| 20260507153403 | 14 | 239 | 6.4 | 24.1 | 0.00 | 2.06 | 2.06 | 71 | 1002.2 |
| 20260507153204 | 14 | 240 | 9.7 | 24.1 | 0.00 | 2.06 | 2.06 | 71 | 1002.5 |
| 20260507153103 | 14 | 238 | 9.7 | 24.1 | 0.00 | 2.06 | 2.06 | 71 | 1002.5 |
| 20260507153003 | 14 | 254 | 11.3 | 20.9 | 0.00 | 2.06 | 2.06 | 72 | 1002.4 |
| 20260507152905 | 14 | 248 | 6.4 | 17.7 | 0.00 | 2.06 | 2.06 | 72 | 1002.6 |
| 20260507152803 | 14 | 254 | 6.4 | 12.9 | 0.00 | 2.06 | 2.06 | 73 | 1002.5 |
| 20260507152704 | 14 | 249 | 4.8 | 12.9 | 0.00 | 2.06 | 2.06 | 73 | 1002.8 |
| 20260507152603 | 14 | 252 | 8.0 | 12.9 | 0.00 | 2.06 | 2.06 | 73 | 1002.8 |
| 20260507152516 | 14 | 237 | 6.4 | 12.9 | 0.00 | 2.06 | 2.06 | 73 | 1002.8 |
| 20260507152404 | 14 | 232 | 3.2 | 12.9 | 0.00 | 2.06 | 2.06 | 73 | 1002.7 |
| 20260507152204 | 14 | 234 | 3.2 | 12.9 | 0.00 | 2.06 | 2.06 | 73 | 1002.8 |
| 20260507152105 | 14 | 232 | 6.4 | 14.5 | 0.00 | 2.06 | 2.06 | 73 | 1003.2 |
| 20260507152003 | 14 | 236 | 6.4 | 14.5 | 0.00 | 2.06 | 2.06 | 73 | 1003.3 |
| 20260507151905 | 14 | 239 | 8.0 | 14.5 | 0.00 | 2.06 | 2.06 | 73 | 1003.1 |
| 20260507151805 | 14 | 242 | 6.4 | 17.7 | 0.00 | 2.06 | 2.06 | 73 | 1003.2 |
| 20260507151703 | 14 | 241 | 9.7 | 17.7 | 0.00 | 2.06 | 2.06 | 72 | 1003.2 |
| 20260507151619 | 14 | 245 | 11.3 | 17.7 | 0.00 | 2.06 | 2.06 | 73 | 1003.5 |
| 20260507151603 | 14 | 248 | 11.3 | 17.7 | 0.00 | 2.06 | 2.06 | 73 | 1003.5 |
| 20260507151505 | 14 | 246 | 6.4 | 17.7 | 0.00 | 2.06 | 2.06 | 73 | 1003.5 |
| 20260507151303 | 14 | 254 | 9.7 | 17.7 | 0.00 | 2.06 | 2.06 | 73 | 1003.8 |
| 20260507151204 | 14 | 249 | 9.7 | 12.9 | 0.00 | 2.06 | 2.06 | 73 | 1003.8 |
| 20260507151104 | 15 | 248 | 4.8 | 11.3 | 0.00 | 2.06 | 2.06 | 73 | 1003.9 |
| 20260507151004 | 15 | 253 | 6.4 | 11.3 | 0.00 | 2.06 | 2.06 | 72 | 1004.0 |
| 20260507150905 | 15 | 244 | 6.4 | 11.3 | 0.00 | 2.06 | 2.06 | 72 | 1004.1 |
| 20260507150805 | 15 | 227 | 4.8 | 12.9 | 0.00 | 2.06 | 2.06 | 72 | 1003.8 |
| 20260507150705 | 15 | 233 | 4.8 | 14.5 | 0.00 | 2.06 | 2.06 | 72 | 1004.4 |
| 20260507150607 | 15 | 227 | 4.8 | 14.5 | 0.00 | 2.06 | 2.06 | 72 | 1004.1 |
| 20260507150504 | 15 | 224 | 6.4 | 14.5 | 0.00 | 2.06 | 2.06 | 72 | 1004.3 |
| 20260507150405 | 15 | 233 | 6.4 | 14.5 | 0.00 | 2.06 | 2.06 | 71 | 1004.5 |
| 20260507150304 | 15 | 236 | 8.0 | 14.5 | 0.00 | 2.06 | 2.06 | 71 | 1004.2 |
| 20260507150204 | 15 | 233 | 6.4 | 12.9 | 0.00 | 2.06 | 2.06 | 71 | 1004.3 |
| 20260507150103 | 15 | 241 | 4.8 | 12.9 | 0.00 | 2.06 | 2.06 | 71 | 1004.5 |
| 20260507150005 | 15 | 247 | 6.4 | 12.9 | 0.00 | 2.06 | 2.06 | 71 | 1004.4 |
| 20260507145904 | 15 | 246 | 8.0 | 12.9 | 0.00 | 2.06 | 2.06 | 71 | 1004.5 |
| 20260507145804 | 15 | 248 | 6.4 | 12.9 | 0.00 | 2.06 | 2.06 | 71 | 1004.5 |
| 20260507145717 | 15 | 255 | 8.0 | 12.9 | 0.00 | 2.06 | 2.06 | 72 | 1004.5 |
| 20260507145704 | 15 | 258 | 8.0 | 12.9 | 0.00 | 2.06 | 2.06 | 72 | 1004.5 |
| 20260507145403 | 15 | 257 | 4.8 | 20.9 | 0.00 | 2.06 | 2.06 | 71 | 1005.0 |
| 20260507145306 | 15 | 254 | 4.8 | 20.9 | 0.00 | 2.06 | 2.06 | 71 | 1004.9 |
| 20260507145203 | 15 | 251 | 8.0 | 20.9 | 0.00 | 2.06 | 2.06 | 71 | 1005.0 |
| 20260507145004 | 15 | 254 | 8.0 | 17.7 | 0.00 | 2.06 | 2.06 | 71 | 1005.1 |
| 20260507144903 | 15 | 247 | 8.0 | 17.7 | 0.00 | 2.06 | 2.06 | 71 | 1005.1 |
| 20260507144803 | 15 | 248 | 11.3 | 17.7 | 0.00 | 2.06 | 2.06 | 71 | 1005.1 |
| 20260507144703 | 15 | 259 | 6.4 | 17.7 | 0.00 | 2.06 | 2.06 | 71 | 1004.8 |
| 20260507144609 | 15 | 255 | 11.3 | 22.5 | 0.00 | 2.06 | 2.06 | 70 | 1004.8 |
| 20260507144503 | 15 | 270 | 6.4 | 22.5 | 0.00 | 2.06 | 2.06 | 71 | 1004.8 |
| 20260507144403 | 15 | 291 | 9.7 | 22.5 | 0.00 | 2.06 | 2.06 | 71 | 1004.8 |
| 20260507144303 | 15 | 287 | 6.4 | 22.5 | 0.00 | 2.06 | 2.06 | 71 | 1004.9 |
| 20260507144204 | 15 | 265 | 8.0 | 24.1 | 0.00 | 2.06 | 2.06 | 70 | 1004.8 |
| 20260507144105 | 15 | 262 | 11.3 | 24.1 | 0.00 | 2.06 | 2.06 | 70 | 1004.6 |
| 20260507144005 | 15 | 255 | 9.7 | 24.1 | 0.00 | 2.06 | 2.06 | 70 | 1004.7 |
| 20260507143904 | 15 | 243 | 9.7 | 24.1 | 0.00 | 2.06 | 2.06 | 70 | 1004.7 |
| 20260507143803 | 15 | 246 | 9.7 | 24.1 | 0.00 | 2.06 | 2.06 | 70 | 1004.5 |
| 20260507143708 | 15 | 249 | 16.1 | 25.7 | 0.00 | 2.06 | 2.06 | 70 | 1004.5 |
| 20260507143603 | 15 | 247 | 11.3 | 25.7 | 0.00 | 2.06 | 2.06 | 71 | 1004.6 |
| 20260507143503 | 15 | 236 | 8.0 | 27.4 | 0.00 | 2.06 | 2.06 | 71 | 1004.3 |
| 20260507143403 | 15 | 236 | 11.3 | 27.4 | 0.00 | 2.06 | 2.06 | 70 | 1004.1 |
| 20260507143305 | 15 | 238 | 8.0 | 27.4 | 0.00 | 2.06 | 2.06 | 70 | 1004.0 |
| 20260507143217 | 15 | 240 | 9.7 | 27.4 | 0.00 | 2.06 | 2.06 | 70 | 1003.7 |
| 20260507143205 | 15 | 242 | 9.7 | 27.4 | 0.00 | 2.06 | 2.06 | 70 | 1003.7 |
| 20260507143103 | 15 | 239 | 11.3 | 27.4 | 0.00 | 2.06 | 2.06 | 70 | 1003.8 |
| 20260507142903 | 15 | 237 | 8.0 | 22.5 | 0.00 | 2.06 | 2.06 | 70 | 1003.6 |
| 20260507142804 | 15 | 226 | 9.7 | 22.5 | 0.00 | 2.06 | 2.06 | 70 | 1003.2 |
| 20260507142704 | 15 | 223 | 9.7 | 22.5 | 0.00 | 2.06 | 2.06 | 69 | 1003.1 |
| 20260507142603 | 15 | 228 | 6.4 | 22.5 | 0.00 | 2.06 | 2.06 | 69 | 1002.5 |
| 20260507142504 | 15 | 237 | 12.9 | 22.5 | 0.00 | 2.06 | 2.06 | 70 | 1002.2 |
| 20260507142405 | 15 | 240 | 8.0 | 20.9 | 0.00 | 2.06 | 2.06 | 71 | 1002.6 |
| 20260507142307 | 15 | 238 | 9.7 | 20.9 | 0.00 | 2.06 | 2.06 | 71 | 1002.2 |
| 20260507142207 | 15 | 235 | 11.3 | 25.7 | 0.00 | 2.06 | 2.06 | 71 | 1002.5 |
| 20260507142105 | 15 | 232 | 11.3 | 27.4 | 0.00 | 2.06 | 2.06 | 71 | 1002.3 |
| 20260507142004 | 15 | 225 | 12.9 | 27.4 | 0.00 | 2.06 | 2.06 | 71 | 1002.4 |
| 20260507141904 | 15 | 233 | 9.7 | 27.4 | 0.00 | 2.06 | 2.06 | 70 | 1002.4 |
| 20260507141805 | 15 | 242 | 9.7 | 27.4 | 0.00 | 2.06 | 2.06 | 70 | 1002.5 |
| 20260507141716 | 15 | 248 | 12.9 | 27.4 | 0.00 | 2.06 | 2.06 | 70 | 1002.6 |
| 20260507141705 | 15 | 249 | 12.9 | 27.4 | 0.00 | 2.06 | 2.06 | 70 | 1002.6 |
| 20260507141604 | 15 | 248 | 19.3 | 27.4 | 0.00 | 2.06 | 2.06 | 70 | 1002.8 |
| 20260507141518 | 15 | 253 | 16.1 | 25.7 | 0.00 | 2.06 | 2.06 | 71 | 1002.9 |
| 20260507141404 | 15 | 246 | 14.5 | 25.7 | 0.00 | 2.06 | 2.06 | 71 | 1003.2 |
| 20260507141204 | 15 | 235 | 12.9 | 25.7 | 0.00 | 2.06 | 2.06 | 71 | 1003.2 |
| 20260507141104 | 15 | 239 | 17.7 | 25.7 | 0.00 | 2.06 | 2.06 | 71 | 1003.0 |
| 20260507141004 | 15 | 233 | 16.1 | 25.7 | 0.00 | 2.06 | 2.06 | 70 | 1002.9 |
| 20260507140904 | 15 | 230 | 12.9 | 25.7 | 0.00 | 2.06 | 2.06 | 70 | 1003.1 |
| 20260507140805 | 15 | 217 | 12.9 | 24.1 | 0.00 | 2.06 | 2.06 | 70 | 1003.2 |
| 20260507140705 | 15 | 218 | 11.3 | 22.5 | 0.00 | 2.06 | 2.06 | 71 | 1002.7 |
| 20260507140605 | 15 | 221 | 8.0 | 20.9 | 0.00 | 2.06 | 2.06 | 71 | 1002.7 |
| 20260507140505 | 15 | 223 | 6.4 | 17.7 | 0.00 | 2.06 | 2.06 | 71 | 1002.6 |
| 20260507140417 | 15 | 221 | 12.9 | 17.7 | 0.00 | 2.06 | 2.06 | 71 | 1002.6 |
| 20260507140403 | 15 | 216 | 12.9 | 17.7 | 0.00 | 2.06 | 2.06 | 71 | 1002.6 |
| 20260507140303 | 15 | 219 | 11.3 | 17.7 | 0.00 | 2.06 | 2.06 | 71 | 1002.5 |
| 20260507140113 | 15 | 203 | 9.7 | 20.9 | 0.00 | 2.06 | 2.06 | 71 | 1003.0 |
| 20260507140104 | 15 | 207 | 9.7 | 20.9 | 0.00 | 2.06 | 2.06 | 71 | 1003.0 |
| 20260507140005 | 15 | 205 | 8.0 | 20.9 | 0.00 | 2.06 | 2.06 | 71 | 1002.8 |
| 20260507135915 | 15 | 219 | 9.7 | 20.9 | 0.00 | 2.06 | 2.06 | 71 | 1003.0 |
| 20260507135819 | 15 | 213 | 6.4 | 20.9 | 0.00 | 2.06 | 2.06 | 71 | 1003.0 |
| 20260507135805 | 15 | 213 | 11.3 | 20.9 | 0.00 | 2.06 | 2.06 | 70 | 1003.1 |
| 20260507135616 | 15 | 226 | 8.0 | 17.7 | 0.00 | 2.06 | 2.06 | 70 | 1002.7 |
| 20260507135504 | 15 | 223 | 8.0 | 17.7 | 0.00 | 2.06 | 2.06 | 70 | 1002.9 |
| 20260507135317 | 15 | 230 | 6.4 | 20.9 | 0.00 | 2.06 | 2.06 | 71 | 1002.8 |
| 20260507135204 | 15 | 226 | 8.0 | 20.9 | 0.00 | 2.06 | 2.06 | 71 | 1002.9 |
| 20260507135005 | 15 | 220 | 9.7 | 22.5 | 0.00 | 2.06 | 2.06 | 71 | 1002.7 |
| 20260507134903 | 15 | 218 | 9.7 | 22.5 | 0.00 | 2.06 | 2.06 | 70 | 1002.5 |
| 20260507134803 | 15 | 203 | 9.7 | 22.5 | 0.00 | 2.06 | 2.06 | 71 | 1002.6 |
| 20260507134703 | 15 | 208 | 12.9 | 22.5 | 0.00 | 2.06 | 2.06 | 70 | 1002.8 |
| 20260507134604 | 15 | 222 | 6.4 | 20.9 | 0.00 | 2.06 | 2.06 | 71 | 1002.7 |
| 20260507134516 | 15 | 228 | 12.9 | 20.9 | 0.00 | 2.06 | 2.06 | 71 | 1002.6 |
| 20260507134503 | 15 | 226 | 12.9 | 20.9 | 0.00 | 2.06 | 2.06 | 71 | 1002.6 |
| 20260507134403 | 15 | 234 | 9.7 | 24.1 | 0.00 | 2.06 | 2.06 | 71 | 1002.7 |
| 20260507134203 | 15 | 239 | 12.9 | 24.1 | 0.00 | 2.06 | 2.06 | 70 | 1002.6 |
| 20260507134104 | 15 | 238 | 9.7 | 24.1 | 0.00 | 2.06 | 2.06 | 70 | 1002.4 |
| 20260507134004 | 15 | 238 | 9.7 | 24.1 | 0.00 | 2.06 | 2.06 | 70 | 1002.1 |
| 20260507133903 | 15 | 236 | 14.5 | 24.1 | 0.00 | 2.06 | 2.06 | 70 | 1002.2 |
| 20260507133816 | 15 | 238 | 14.5 | 24.1 | 0.00 | 2.06 | 2.06 | 70 | 1002.1 |
| 20260507133803 | 15 | 240 | 6.4 | 24.1 | 0.00 | 2.06 | 2.06 | 71 | 1002.3 |
| 20260507133705 | 15 | 238 | 8.0 | 24.1 | 0.00 | 2.06 | 2.06 | 71 | 1002.3 |
| 20260507133504 | 15 | 237 | 8.0 | 24.1 | 0.00 | 2.06 | 2.06 | 71 | 1002.1 |
| 20260507133404 | 15 | 228 | 12.9 | 24.1 | 0.00 | 2.06 | 2.06 | 71 | 1002.2 |
| 20260507133303 | 15 | 220 | 11.3 | 24.1 | 0.00 | 2.06 | 2.06 | 71 | 1001.9 |
| 20260507133207 | 15 | 225 | 8.0 | 20.9 | 0.00 | 2.06 | 2.06 | 71 | 1002.1 |
| 20260507133103 | 15 | 228 | 12.9 | 20.9 | 0.00 | 2.06 | 2.06 | 71 | 1002.1 |
| 20260507133005 | 15 | 213 | 6.4 | 20.9 | 0.00 | 2.06 | 2.06 | 71 | 1001.9 |
| 20260507132918 | 15 | 230 | 8.0 | 20.9 | 0.00 | 2.06 | 2.06 | 72 | 1002.0 |
| 20260507132804 | 15 | 249 | 6.4 | 24.1 | 0.00 | 2.06 | 2.06 | 71 | 1001.8 |
| 20260507132604 | 15 | 233 | 9.7 | 25.7 | 0.00 | 2.06 | 2.06 | 71 | 1001.9 |
| 20260507132505 | 15 | 237 | 11.3 | 25.7 | 0.00 | 2.06 | 2.06 | 72 | 1002.0 |
| 20260507132416 | 15 | 240 | 11.3 | 25.7 | 0.00 | 2.06 | 2.06 | 72 | 1002.0 |
| 20260507132404 | 15 | 241 | 11.3 | 25.7 | 0.00 | 2.06 | 2.06 | 72 | 1002.0 |
| 20260507132307 | 15 | 239 | 12.9 | 25.7 | 0.00 | 2.06 | 2.06 | 71 | 1001.9 |
| 20260507132104 | 15 | 242 | 12.9 | 22.5 | 0.00 | 2.06 | 2.06 | 72 | 1002.1 |
| 20260507132004 | 15 | 243 | 12.9 | 24.1 | 0.00 | 2.06 | 2.06 | 72 | 1002.3 |
| 20260507131817 | 15 | 243 | 8.0 | 24.1 | 0.00 | 2.06 | 2.06 | 72 | 1002.3 |
| 20260507131805 | 15 | 243 | 8.0 | 24.1 | 0.00 | 2.06 | 2.06 | 72 | 1002.2 |
| 20260507131708 | 15 | 243 | 8.0 | 24.1 | 0.00 | 2.06 | 2.06 | 72 | 1002.2 |
| 20260507131505 | 15 | 243 | 16.1 | 24.1 | 0.00 | 2.06 | 2.06 | 72 | 1002.3 |
| 20260507131405 | 15 | 248 | 4.8 | 27.4 | 0.00 | 2.06 | 2.06 | 73 | 1002.4 |
| 20260507131304 | 15 | 245 | 8.0 | 27.4 | 0.00 | 2.06 | 2.06 | 72 | 1002.3 |
| 20260507131204 | 15 | 245 | 9.7 | 27.4 | 0.00 | 2.06 | 2.06 | 73 | 1002.4 |
| 20260507131103 | 15 | 245 | 12.9 | 27.4 | 0.00 | 2.06 | 2.06 | 73 | 1002.5 |
| 20260507131004 | 15 | 244 | 12.9 | 27.4 | 0.00 | 2.06 | 2.06 | 73 | 1002.5 |
| 20260507130906 | 15 | 238 | 8.0 | 27.4 | 0.00 | 2.06 | 2.06 | 74 | 1002.7 |
| 20260507130805 | 15 | 236 | 11.3 | 27.4 | 0.00 | 2.06 | 2.06 | 73 | 1002.5 |
| 20260507130604 | 15 | 230 | 12.9 | 27.4 | 0.00 | 2.06 | 2.06 | 74 | 1002.5 |
| 20260507130304 | 15 | 231 | 8.0 | 25.7 | 0.00 | 2.06 | 2.06 | 74 | 1003.0 |
| 20260507130205 | 15 | 227 | 8.0 | 25.7 | 0.00 | 2.06 | 2.06 | 74 | 1002.9 |
| 20260507130107 | 15 | 233 | 14.5 | 25.7 | 0.00 | 2.06 | 2.06 | 74 | 1003.0 |
| 20260507130004 | 15 | 236 | 12.9 | 25.7 | 0.00 | 2.06 | 2.06 | 74 | 1003.1 |
| 20260507125903 | 15 | 238 | 9.7 | 22.5 | 0.00 | 2.06 | 2.06 | 74 | 1003.1 |
| 20260507125804 | 15 | 235 | 12.9 | 22.5 | 0.00 | 2.06 | 2.06 | 74 | 1003.1 |
| 20260507125605 | 15 | 232 | 12.9 | 22.5 | 0.00 | 2.06 | 2.06 | 74 | 1003.1 |
| 20260507125503 | 15 | 237 | 12.9 | 20.9 | 0.00 | 2.06 | 2.06 | 75 | 1003.0 |
| 20260507125307 | 15 | 238 | 14.5 | 20.9 | 0.00 | 2.06 | 2.06 | 75 | 1003.0 |
| 20260507125205 | 15 | 243 | 12.9 | 20.9 | 0.00 | 2.06 | 2.06 | 75 | 1002.8 |
| 20260507125104 | 15 | 243 | 6.4 | 20.9 | 0.00 | 2.06 | 2.06 | 76 | 1002.9 |
| 20260507125003 | 15 | 237 | 8.0 | 20.9 | 0.00 | 2.06 | 2.06 | 76 | 1002.8 |
| 20260507124903 | 15 | 238 | 8.0 | 24.1 | 0.00 | 2.06 | 2.06 | 76 | 1002.6 |
| 20260507124805 | 15 | 236 | 9.7 | 24.1 | 0.00 | 2.06 | 2.06 | 76 | 1002.7 |
| 20260507124703 | 15 | 232 | 4.8 | 24.1 | 0.00 | 2.06 | 2.06 | 76 | 1002.5 |
| 20260507124603 | 15 | 236 | 6.4 | 24.1 | 0.00 | 2.06 | 2.06 | 75 | 1002.5 |
| 20260507124503 | 15 | 232 | 6.4 | 24.1 | 0.00 | 2.06 | 2.06 | 75 | 1002.5 |
| 20260507124404 | 15 | 228 | 12.9 | 24.1 | 0.00 | 2.06 | 2.06 | 75 | 1002.5 |
| 20260507124303 | 15 | 226 | 6.4 | 25.7 | 0.00 | 2.06 | 2.06 | 75 | 1002.3 |
| 20260507124203 | 15 | 222 | 8.0 | 25.7 | 0.00 | 2.06 | 2.06 | 75 | 1002.0 |
| 20260507124116 | 15 | 219 | 9.7 | 25.7 | 0.00 | 2.06 | 2.06 | 75 | 1002.1 |
| 20260507124103 | 15 | 222 | 9.7 | 25.7 | 0.00 | 2.06 | 2.06 | 75 | 1002.1 |
| 20260507124019 | 15 | 226 | 8.0 | 25.7 | 0.00 | 2.06 | 2.06 | 75 | 1002.4 |
| 20260507124003 | 15 | 225 | 8.0 | 25.7 | 0.00 | 2.06 | 2.06 | 75 | 1002.4 |
| 20260507123704 | 15 | 236 | 9.7 | 17.7 | 0.00 | 2.06 | 2.06 | 75 | 1002.3 |
| 20260507123604 | 15 | 234 | 8.0 | 17.7 | 0.00 | 2.06 | 2.06 | 75 | 1002.4 |
| 20260507123504 | 15 | 236 | 8.0 | 17.7 | 0.00 | 2.06 | 2.06 | 75 | 1002.4 |
| 20260507123405 | 15 | 241 | 6.4 | 17.7 | 0.00 | 2.06 | 2.06 | 75 | 1002.5 |
| 20260507123305 | 15 | 250 | 6.4 | 17.7 | 0.00 | 2.06 | 2.06 | 75 | 1002.5 |
| 20260507123204 | 15 | 250 | 6.4 | 17.7 | 0.00 | 2.06 | 2.06 | 75 | 1002.6 |
| 20260507123105 | 15 | 238 | 6.4 | 22.5 | 0.00 | 2.06 | 2.06 | 75 | 1002.1 |
| 20260507123015 | 15 | 241 | 6.4 | 22.5 | 0.00 | 2.06 | 2.06 | 75 | 1002.1 |
| 20260507123005 | 15 | 238 | 6.4 | 22.5 | 0.00 | 2.06 | 2.06 | 75 | 1002.1 |
| 20260507122910 | 15 | 230 | 9.7 | 22.5 | 0.00 | 2.06 | 2.06 | 74 | 1002.2 |
| 20260507122705 | 15 | 220 | 9.7 | 22.5 | 0.00 | 2.06 | 2.06 | 74 | 1002.1 |
| 20260507122603 | 16 | 231 | 8.0 | 17.7 | 0.00 | 2.06 | 2.06 | 74 | 1002.1 |
| 20260507122504 | 16 | 214 | 11.3 | 17.7 | 0.00 | 2.06 | 2.06 | 74 | 1001.9 |
| 20260507122403 | 16 | 205 | 6.4 | 17.7 | 0.00 | 2.06 | 2.06 | 74 | 1002.1 |
| 20260507122307 | 16 | 202 | 6.4 | 17.7 | 0.00 | 2.06 | 2.06 | 74 | 1001.7 |
| 20260507122204 | 16 | 206 | 6.4 | 22.5 | 0.00 | 2.06 | 2.06 | 74 | 1001.7 |
| 20260507122117 | 16 | 209 | 6.4 | 22.5 | 0.00 | 2.06 | 2.06 | 74 | 1001.6 |
| 20260507122104 | 16 | 213 | 6.4 | 22.5 | 0.00 | 2.06 | 2.06 | 74 | 1001.6 |
| 20260507122004 | 16 | 228 | 8.0 | 22.5 | 0.00 | 2.06 | 2.06 | 74 | 1001.6 |
| 20260507121805 | 16 | 222 | 6.4 | 22.5 | 0.00 | 2.06 | 2.06 | 74 | 1001.3 |
| 20260507121703 | 16 | 227 | 11.3 | 22.5 | 0.00 | 2.06 | 2.06 | 74 | 1001.4 |
| 20260507121606 | 16 | 225 | 6.4 | 17.7 | 0.00 | 2.06 | 2.06 | 74 | 1001.4 |
| 20260507121504 | 16 | 222 | 8.0 | 17.7 | 0.00 | 2.06 | 2.06 | 74 | 1001.4 |
| 20260507121418 | 16 | 223 | 9.7 | 17.7 | 0.00 | 2.06 | 2.06 | 74 | 1001.6 |
| 20260507121405 | 16 | 226 | 6.4 | 17.7 | 0.00 | 2.06 | 2.06 | 74 | 1001.5 |
| 20260507121304 | 16 | 235 | 9.7 | 17.7 | 0.00 | 2.06 | 2.06 | 74 | 1001.6 |
| 20260507121105 | 16 | 241 | 6.4 | 17.7 | 0.00 | 2.06 | 2.06 | 74 | 1001.6 |
| 20260507121004 | 16 | 242 | 6.4 | 17.7 | 0.00 | 2.06 | 2.06 | 74 | 1001.2 |
| 20260507120915 | 16 | 244 | 4.8 | 17.7 | 0.00 | 2.06 | 2.06 | 74 | 1001.0 |
| 20260507120905 | 16 | 243 | 4.8 | 17.7 | 0.00 | 2.06 | 2.06 | 74 | 1001.0 |
| 20260507120804 | 16 | 242 | 8.0 | 17.7 | 0.00 | 2.06 | 2.06 | 74 | 1000.9 |
| 20260507120605 | 16 | 238 | 3.2 | 14.5 | 0.00 | 2.06 | 2.06 | 75 | 1001.3 |
| 20260507120504 | 16 | 234 | 6.4 | 17.7 | 0.00 | 2.06 | 2.06 | 74 | 1001.0 |
| 20260507120403 | 16 | 239 | 6.4 | 17.7 | 0.00 | 2.06 | 2.06 | 74 | 1001.1 |
| 20260507120304 | 16 | 235 | 6.4 | 17.7 | 0.00 | 2.06 | 2.06 | 74 | 1001.3 |
| 20260507120204 | 16 | 238 | 6.4 | 17.7 | 0.00 | 2.06 | 2.06 | 74 | 1001.2 |
| 20260507120103 | 16 | 210 | 6.4 | 20.9 | 0.00 | 2.06 | 2.06 | 74 | 1001.4 |
| 20260507120005 | 16 | 201 | 9.7 | 20.9 | 0.00 | 2.06 | 2.06 | 74 | 1001.3 |
| 20260507115904 | 16 | 174 | 6.4 | 20.9 | 0.00 | 2.06 | 2.06 | 74 | 1001.3 |
| 20260507115815 | 16 | 184 | 6.4 | 20.9 | 0.00 | 2.06 | 2.06 | 74 | 1001.0 |
| 20260507115803 | 16 | 187 | 8.0 | 20.9 | 0.00 | 2.06 | 2.06 | 74 | 1000.8 |
| 20260507115705 | 16 | 207 | 9.7 | 20.9 | 0.00 | 2.06 | 2.06 | 74 | 1001.1 |
| 20260507115503 | 16 | 196 | 6.4 | 17.7 | 0.00 | 2.06 | 2.06 | 74 | 1000.9 |
| 20260507115403 | 16 | 202 | 8.0 | 17.7 | 0.00 | 2.06 | 2.06 | 73 | 1001.0 |
| 20260507115307 | 16 | 202 | 6.4 | 17.7 | 0.00 | 2.06 | 2.06 | 73 | 1001.1 |
| 20260507115217 | 16 | 204 | 6.4 | 17.7 | 0.00 | 2.06 | 2.06 | 73 | 1001.0 |
| 20260507115206 | 16 | 206 | 6.4 | 17.7 | 0.00 | 2.06 | 2.06 | 73 | 1001.0 |
| 20260507115103 | 16 | 204 | 6.4 | 17.7 | 0.00 | 2.06 | 2.06 | 73 | 1001.1 |
| 20260507114903 | 16 | 227 | 8.0 | 17.7 | 0.00 | 2.06 | 2.06 | 72 | 1000.8 |
| 20260507114803 | 16 | 184 | 4.8 | 17.7 | 0.00 | 2.06 | 2.06 | 72 | 1000.9 |
| 20260507114705 | 16 | 184 | 8.0 | 17.7 | 0.00 | 2.06 | 2.06 | 72 | 1000.8 |
| 20260507114603 | 16 | 201 | 9.7 | 17.7 | 0.00 | 2.06 | 2.06 | 72 | 1000.9 |
| 20260507114503 | 16 | 183 | 6.4 | 17.7 | 0.00 | 2.06 | 2.06 | 72 | 1000.9 |
| 20260507114415 | 16 | 184 | 6.4 | 17.7 | 0.00 | 2.06 | 2.06 | 72 | 1001.3 |
| 20260507114403 | 16 | 180 | 6.4 | 17.7 | 0.00 | 2.06 | 2.06 | 72 | 1001.3 |
| 20260507114304 | 16 | 181 | 8.0 | 17.7 | 0.00 | 2.06 | 2.06 | 72 | 1001.2 |
| 20260507114104 | 16 | 199 | 8.0 | 14.5 | 0.00 | 2.06 | 2.06 | 72 | 1000.9 |
| 20260507114004 | 16 | 204 | 6.4 | 14.5 | 0.00 | 2.06 | 2.06 | 72 | 1001.1 |
| 20260507113905 | 16 | 198 | 6.4 | 14.5 | 0.00 | 2.06 | 2.06 | 72 | 1001.2 |
| 20260507113804 | 16 | 201 | 8.0 | 17.7 | 0.00 | 2.06 | 2.06 | 72 | 1001.7 |
| 20260507113604 | 16 | 191 | 6.4 | 17.7 | 0.00 | 2.06 | 2.06 | 72 | 1001.8 |
| 20260507113503 | 16 | 198 | 6.4 | 17.7 | 0.00 | 2.06 | 2.06 | 72 | 1001.9 |
| 20260507113403 | 16 | 217 | 3.2 | 17.7 | 0.00 | 2.06 | 2.06 | 72 | 1001.9 |
| 20260507113315 | 16 | 223 | 8.0 | 20.9 | 0.00 | 2.06 | 2.06 | 72 | 1001.8 |
| 20260507113213 | 16 | 222 | 4.8 | 20.9 | 0.00 | 2.06 | 2.06 | 72 | 1001.8 |
| 20260507113204 | 16 | 215 | 4.8 | 20.9 | 0.00 | 2.06 | 2.06 | 72 | 1001.8 |
| 20260507112903 | 16 | 190 | 4.8 | 20.9 | 0.00 | 2.06 | 2.06 | 73 | 1001.3 |
| 20260507112806 | 16 | 192 | 9.7 | 20.9 | 0.00 | 2.06 | 2.06 | 72 | 1001.0 |
| 20260507112704 | 16 | 197 | 8.0 | 20.9 | 0.00 | 2.06 | 2.06 | 72 | 1000.8 |
| 20260507112609 | 16 | 204 | 9.7 | 20.9 | 0.00 | 2.06 | 2.06 | 73 | 1000.7 |
| 20260507112417 | 16 | 220 | 6.4 | 20.9 | 0.00 | 2.06 | 2.06 | 73 | 1000.4 |
| 20260507112403 | 16 | 226 | 6.4 | 20.9 | 0.00 | 2.06 | 2.06 | 73 | 1000.4 |
| 20260507112307 | 16 | 239 | 11.3 | 20.9 | 0.00 | 2.06 | 2.06 | 73 | 1000.3 |
| 20260507112004 | 16 | 242 | 6.4 | 22.5 | 0.00 | 2.06 | 2.06 | 74 | 1000.1 |
| 20260507111904 | 16 | 232 | 9.7 | 22.5 | 0.00 | 2.06 | 2.06 | 73 | 999.8 |
| 20260507111805 | 16 | 196 | 11.3 | 24.1 | 0.00 | 2.06 | 2.06 | 74 | 1000.0 |
| 20260507111703 | 16 | 172 | 9.7 | 24.1 | 0.00 | 2.06 | 2.06 | 74 | 1000.1 |
| 20260507111603 | 16 | 175 | 4.8 | 24.1 | 0.00 | 2.06 | 2.06 | 74 | 1000.1 |
| 20260507111506 | 16 | 181 | 11.3 | 24.1 | 0.00 | 2.06 | 2.06 | 73 | 1000.3 |
| 20260507111403 | 16 | 185 | 11.3 | 24.1 | 0.00 | 2.06 | 2.06 | 73 | 1000.3 |
| 20260507111304 | 16 | 182 | 9.7 | 22.5 | 0.00 | 2.06 | 2.06 | 73 | 1000.5 |
| 20260507111204 | 16 | 180 | 9.7 | 22.5 | 0.00 | 2.06 | 2.06 | 73 | 1000.8 |
| 20260507111104 | 17 | 194 | 8.0 | 20.9 | 0.00 | 2.06 | 2.06 | 73 | 1000.7 |
| 20260507111003 | 17 | 171 | 6.4 | 20.9 | 0.00 | 2.06 | 2.06 | 73 | 1001.0 |
| 20260507110916 | 17 | 144 | 8.0 | 20.9 | 0.00 | 2.06 | 2.06 | 73 | 1000.8 |
| 20260507110903 | 17 | 147 | 8.0 | 20.9 | 0.00 | 2.06 | 2.06 | 73 | 1000.8 |
| 20260507110805 | 17 | 210 | 8.0 | 20.9 | 0.00 | 2.06 | 2.06 | 73 | 1001.1 |
| 20260507110713 | 17 | 233 | 12.9 | 20.9 | 0.00 | 2.06 | 2.06 | 73 | 1001.2 |
| 20260507110603 | 17 | 213 | 6.4 | 22.5 | 0.00 | 2.06 | 2.06 | 74 | 1000.9 |
| 20260507110405 | 17 | 229 | 6.4 | 22.5 | 0.00 | 2.06 | 2.06 | 74 | 1000.7 |
| 20260507110305 | 17 | 234 | 11.3 | 22.5 | 0.00 | 2.06 | 2.06 | 74 | 1000.4 |
| 20260507110203 | 17 | 237 | 12.9 | 22.5 | 0.00 | 2.06 | 2.06 | 76 | 1000.4 |
| 20260507110103 | 17 | 234 | 12.9 | 27.4 | 0.00 | 2.06 | 2.06 | 76 | 1000.6 |
| 20260507110007 | 17 | 222 | 14.5 | 27.4 | 0.00 | 2.06 | 2.06 | 77 | 1000.0 |
| 20260507105904 | 17 | 190 | 9.7 | 27.4 | 0.00 | 2.06 | 2.06 | 78 | 1000.1 |
| 20260507105803 | 17 | 182 | 6.4 | 27.4 | 0.00 | 2.06 | 2.06 | 80 | 1000.0 |
| 20260507105703 | 17 | 183 | 4.8 | 27.4 | 0.00 | 2.06 | 2.06 | 81 | 999.8 |
| 20260507105604 | 17 | 190 | 12.9 | 27.4 | 0.00 | 2.06 | 2.06 | 80 | 999.4 |
| 20260507105505 | 17 | 203 | 9.7 | 27.4 | 0.00 | 2.06 | 2.06 | 81 | 999.2 |
| 20260507105403 | 17 | 212 | 9.7 | 27.4 | 0.00 | 2.06 | 2.06 | 81 | 998.8 |
| 20260507105306 | 17 | 216 | 12.9 | 27.4 | 0.00 | 2.06 | 2.06 | 81 | 998.6 |
| 20260507105217 | 17 | 229 | 12.9 | 27.4 | 0.00 | 2.06 | 2.06 | 81 | 998.5 |
| 20260507105203 | 17 | 232 | 12.9 | 27.4 | 0.00 | 2.06 | 2.06 | 81 | 998.5 |
| 20260507105103 | 17 | 243 | 14.5 | 25.7 | 0.00 | 2.06 | 2.06 | 81 | 998.2 |
| 20260507104903 | 17 | 253 | 12.9 | 27.4 | 0.00 | 2.06 | 2.06 | 81 | 997.5 |
| 20260507104816 | 17 | 251 | 17.7 | 27.4 | 0.00 | 2.06 | 2.06 | 82 | 997.7 |
| 20260507104805 | 17 | 245 | 17.7 | 27.4 | 0.00 | 2.06 | 2.06 | 82 | 997.7 |
| 20260507104705 | 17 | 235 | 11.3 | 27.4 | 0.00 | 2.06 | 2.06 | 82 | 997.9 |
| 20260507104405 | 17 | 229 | 12.9 | 29.0 | 0.00 | 2.06 | 2.06 | 84 | 998.0 |
| 20260507104304 | 17 | 227 | 12.9 | 29.0 | 0.00 | 2.06 | 2.06 | 86 | 998.0 |
| 20260507104205 | 17 | 238 | 11.3 | 29.0 | 0.00 | 2.06 | 2.06 | 87 | 998.4 |
| 20260507104103 | 17 | 244 | 19.3 | 29.0 | 0.00 | 2.06 | 2.06 | 88 | 998.3 |
| 20260507104005 | 17 | 248 | 12.9 | 27.4 | 0.00 | 2.06 | 2.06 | 89 | 998.0 |
| 20260507103903 | 17 | 243 | 8.0 | 27.4 | 0.00 | 2.06 | 2.06 | 89 | 998.4 |
| 20260507103804 | 17 | 242 | 14.5 | 27.4 | 0.00 | 2.06 | 2.06 | 90 | 998.2 |
| 20260507103704 | 17 | 224 | 11.3 | 20.9 | 0.00 | 2.06 | 2.06 | 91 | 998.3 |
| 20260507103603 | 17 | 221 | 9.7 | 20.9 | 0.00 | 2.06 | 2.06 | 91 | 998.1 |
| 20260507103507 | 17 | 233 | 11.3 | 20.9 | 0.00 | 2.06 | 2.06 | 91 | 998.2 |
| 20260507103417 | 17 | 245 | 11.3 | 20.9 | 0.00 | 2.06 | 2.06 | 91 | 998.1 |
| 20260507103404 | 17 | 248 | 12.9 | 24.1 | 0.00 | 2.06 | 2.06 | 91 | 997.8 |
| 20260507103316 | 17 | 251 | 9.7 | 25.7 | 0.00 | 2.06 | 2.06 | 91 | 998.1 |
| 20260507103303 | 17 | 250 | 9.7 | 25.7 | 0.00 | 2.06 | 2.06 | 91 | 998.1 |
| 20260507103004 | 17 | 223 | 12.9 | 29.0 | 0.00 | 2.06 | 2.06 | 91 | 998.0 |
| 20260507102904 | 17 | 218 | 12.9 | 29.0 | 0.00 | 2.06 | 2.06 | 91 | 997.7 |
| 20260507102804 | 17 | 219 | 11.3 | 29.0 | 0.00 | 2.06 | 2.06 | 91 | 997.6 |
| 20260507102704 | 17 | 225 | 12.9 | 29.0 | 0.00 | 2.06 | 2.06 | 91 | 997.5 |
| 20260507102604 | 17 | 227 | 12.9 | 29.0 | 0.00 | 2.06 | 2.06 | 91 | 997.3 |
| 20260507102514 | 17 | 230 | 12.9 | 29.0 | 0.00 | 2.06 | 2.06 | 91 | 997.3 |
| 20260507102503 | 17 | 231 | 12.9 | 29.0 | 0.00 | 2.06 | 2.06 | 91 | 997.3 |
| 20260507102403 | 17 | 233 | 12.9 | 24.1 | 0.00 | 2.06 | 2.06 | 91 | 997.2 |
| 20260507102316 | 17 | 234 | 12.9 | 24.1 | 0.00 | 2.06 | 2.06 | 91 | 997.1 |
| 20260507102204 | 17 | 218 | 6.4 | 29.0 | 0.00 | 2.06 | 2.06 | 91 | 997.0 |
| 20260507102004 | 17 | 220 | 6.4 | 29.0 | 0.00 | 2.06 | 2.06 | 90 | 996.9 |
| 20260507101903 | 17 | 207 | 9.7 | 33.8 | 0.00 | 2.06 | 2.06 | 90 | 996.6 |
| 20260507101803 | 17 | 208 | 17.7 | 33.8 | 0.00 | 2.06 | 2.06 | 90 | 996.4 |
| 20260507101713 | 17 | 223 | 17.7 | 33.8 | 0.00 | 2.06 | 2.06 | 90 | 996.4 |
| 20260507101703 | 17 | 220 | 17.7 | 33.8 | 0.00 | 2.06 | 2.06 | 90 | 996.4 |
| 20260507101617 | 17 | 211 | 12.9 | 33.8 | 0.00 | 2.06 | 2.06 | 90 | 996.4 |
| 20260507101306 | 17 | 209 | 16.1 | 33.8 | 0.00 | 2.06 | 2.06 | 89 | 996.7 |
| 20260507101216 | 17 | 215 | 14.5 | 33.8 | 0.00 | 2.06 | 2.06 | 89 | 996.9 |
| 20260507101205 | 17 | 220 | 14.5 | 33.8 | 0.00 | 2.06 | 2.06 | 89 | 996.9 |
| 20260507101103 | 17 | 227 | 14.5 | 38.6 | 0.00 | 2.06 | 2.06 | 89 | 997.1 |
| 20260507100805 | 17 | 234 | 19.3 | 38.6 | 0.00 | 2.06 | 2.06 | 89 | 997.5 |
| 20260507100704 | 17 | 239 | 17.7 | 46.7 | 0.00 | 2.06 | 2.06 | 89 | 997.6 |
| 20260507100603 | 18 | 233 | 12.9 | 46.7 | 0.00 | 2.06 | 2.06 | 88 | 997.7 |
| 20260507100503 | 18 | 234 | 12.9 | 46.7 | 0.00 | 2.06 | 2.06 | 88 | 997.6 |
| 20260507100415 | 18 | 236 | 17.7 | 46.7 | 0.00 | 2.06 | 2.06 | 88 | 997.6 |
| 20260507100403 | 18 | 237 | 17.7 | 46.7 | 0.00 | 2.06 | 2.06 | 88 | 997.6 |
| 20260507100310 | 18 | 234 | 22.5 | 46.7 | 0.00 | 2.06 | 2.06 | 88 | 997.5 |
| 20260507100104 | 18 | 241 | 17.7 | 33.8 | 0.00 | 2.06 | 2.06 | 88 | 997.8 |
| 20260507100005 | 18 | 236 | 12.9 | 33.8 | 0.00 | 2.06 | 2.06 | 88 | 997.9 |
| 20260507095904 | 18 | 235 | 12.9 | 33.8 | 0.00 | 2.06 | 2.06 | 88 | 997.8 |
| 20260507095816 | 18 | 232 | 16.1 | 33.8 | 0.00 | 2.06 | 2.06 | 88 | 997.9 |
| 20260507095805 | 18 | 229 | 14.5 | 33.8 | 0.00 | 2.06 | 2.06 | 88 | 998.0 |
| 20260507095715 | 18 | 210 | 12.9 | 33.8 | 0.00 | 2.06 | 2.06 | 88 | 998.2 |
| 20260507095704 | 18 | 207 | 12.9 | 33.8 | 0.00 | 2.06 | 2.06 | 88 | 998.2 |
| 20260507095404 | 18 | 220 | 12.9 | 38.6 | 0.00 | 2.06 | 2.06 | 88 | 998.5 |
| 20260507095306 | 18 | 217 | 14.5 | 38.6 | 0.00 | 2.06 | 2.06 | 88 | 998.6 |
| 20260507095203 | 18 | 220 | 12.9 | 38.6 | 0.00 | 2.06 | 2.06 | 88 | 998.6 |
| 20260507095103 | 18 | 225 | 14.5 | 38.6 | 0.00 | 2.06 | 2.06 | 88 | 998.7 |
| 20260507095005 | 18 | 220 | 12.9 | 29.0 | 0.00 | 2.06 | 2.06 | 89 | 998.6 |
| 20260507094904 | 18 | 217 | 16.1 | 29.0 | 0.00 | 2.06 | 2.06 | 89 | 998.8 |
| 20260507094804 | 18 | 235 | 14.5 | 29.0 | 0.00 | 2.06 | 2.06 | 89 | 998.8 |
| 20260507094703 | 18 | 241 | 19.3 | 29.0 | 0.00 | 2.06 | 2.06 | 89 | 998.9 |
| 20260507094604 | 18 | 245 | 11.3 | 25.7 | 0.00 | 2.06 | 2.06 | 89 | 998.7 |
| 20260507094513 | 18 | 247 | 11.3 | 25.7 | 0.00 | 2.06 | 2.06 | 89 | 998.8 |
| 20260507094504 | 18 | 245 | 11.3 | 25.7 | 0.00 | 2.06 | 2.06 | 89 | 998.8 |
| 20260507094405 | 18 | 251 | 12.9 | 35.4 | 0.00 | 2.06 | 2.06 | 89 | 998.7 |
| 20260507094204 | 18 | 262 | 11.3 | 35.4 | 0.00 | 2.06 | 2.06 | 89 | 998.8 |
| 20260507094117 | 18 | 258 | 12.9 | 35.4 | 0.00 | 2.06 | 2.06 | 89 | 998.7 |
| 20260507094107 | 18 | 256 | 12.9 | 35.4 | 0.00 | 2.06 | 2.06 | 89 | 998.7 |
| 20260507094004 | 18 | 261 | 12.9 | 35.4 | 0.00 | 2.06 | 2.06 | 89 | 998.6 |
| 20260507093915 | 18 | 256 | 11.3 | 35.4 | 0.00 | 2.06 | 2.06 | 89 | 998.4 |
| 20260507093803 | 18 | 261 | 14.5 | 27.4 | 0.00 | 2.06 | 2.06 | 90 | 998.7 |
| 20260507093604 | 17 | 240 | 12.9 | 27.4 | 0.00 | 2.06 | 2.06 | 90 | 998.6 |
| 20260507093505 | 17 | 247 | 14.5 | 24.1 | 0.00 | 2.06 | 2.06 | 90 | 998.4 |
| 20260507093409 | 17 | 247 | 11.3 | 22.5 | 0.00 | 2.06 | 2.06 | 90 | 998.3 |
| 20260507093316 | 17 | 224 | 8.0 | 20.9 | 0.00 | 2.06 | 2.06 | 90 | 998.5 |
| 20260507093303 | 17 | 223 | 8.0 | 20.9 | 0.00 | 2.06 | 2.06 | 90 | 998.5 |
| 20260507093203 | 17 | 227 | 12.9 | 22.5 | 0.00 | 2.06 | 2.06 | 90 | 998.4 |
| 20260507093003 | 17 | 232 | 9.7 | 27.4 | 0.00 | 2.06 | 2.06 | 90 | 998.0 |
| 20260507092903 | 17 | 225 | 8.0 | 27.4 | 0.00 | 2.06 | 2.06 | 90 | 998.5 |
| 20260507092803 | 17 | 226 | 8.0 | 27.4 | 0.00 | 2.06 | 2.06 | 90 | 998.3 |
| 20260507092703 | 17 | 224 | 12.9 | 27.4 | 0.00 | 2.06 | 2.06 | 90 | 998.4 |
| 20260507092606 | 17 | 226 | 12.9 | 29.0 | 0.00 | 2.06 | 2.06 | 91 | 998.4 |
| 20260507092505 | 17 | 224 | 11.3 | 29.0 | 0.00 | 2.06 | 2.06 | 91 | 998.6 |
| 20260507092403 | 17 | 212 | 11.3 | 29.0 | 0.00 | 2.06 | 2.06 | 91 | 998.4 |
| 20260507092307 | 17 | 224 | 9.7 | 29.0 | 0.00 | 2.06 | 2.06 | 91 | 998.8 |
| 20260507092205 | 17 | 236 | 12.9 | 29.0 | 0.00 | 2.06 | 2.06 | 91 | 998.6 |
| 20260507092105 | 17 | 211 | 16.1 | 29.0 | 0.00 | 2.06 | 2.06 | 92 | 998.6 |
| 20260507092003 | 17 | 199 | 16.1 | 27.4 | 0.00 | 2.06 | 2.06 | 92 | 998.4 |
| 20260507091903 | 17 | 193 | 16.1 | 27.4 | 0.00 | 2.06 | 2.06 | 92 | 998.7 |
| 20260507091803 | 17 | 202 | 9.7 | 27.4 | 0.00 | 2.06 | 2.06 | 92 | 998.6 |
| 20260507091605 | 17 | 215 | 12.9 | 27.4 | 0.00 | 2.06 | 2.06 | 92 | 998.5 |
| 20260507091503 | 17 | 202 | 12.9 | 25.7 | 0.00 | 2.06 | 2.06 | 92 | 998.7 |
| 20260507091404 | 17 | 216 | 9.7 | 22.5 | 0.00 | 2.06 | 2.06 | 93 | 998.7 |
| 20260507091303 | 17 | 209 | 9.7 | 22.5 | 0.00 | 2.06 | 2.06 | 93 | 998.6 |
| 20260507091203 | 17 | 208 | 8.0 | 22.5 | 0.00 | 2.06 | 2.06 | 93 | 998.6 |
| 20260507091103 | 17 | 206 | 6.4 | 22.5 | 0.03 | 2.06 | 2.06 | 93 | 998.6 |
| 20260507091005 | 17 | 216 | 8.0 | 22.5 | 0.03 | 2.06 | 2.06 | 93 | 998.8 |
| 20260507090903 | 17 | 226 | 12.9 | 22.5 | 0.03 | 2.06 | 2.06 | 93 | 999.0 |
| 20260507090804 | 17 | 231 | 12.9 | 22.5 | 0.03 | 2.06 | 2.06 | 93 | 999.3 |
| 20260507090704 | 17 | 230 | 9.7 | 17.7 | 0.03 | 2.06 | 2.06 | 93 | 999.2 |
| 20260507090604 | 17 | 240 | 6.4 | 22.5 | 0.03 | 2.06 | 2.06 | 93 | 999.2 |
| 20260507090517 | 17 | 246 | 6.4 | 22.5 | 0.03 | 2.06 | 2.06 | 93 | 999.4 |
| 20260507090506 | 17 | 248 | 6.4 | 22.5 | 0.03 | 2.06 | 2.06 | 93 | 999.4 |
| 20260507090404 | 17 | 259 | 6.4 | 22.5 | 0.03 | 2.06 | 2.06 | 93 | 999.3 |
| 20260507090319 | 17 | 257 | 8.0 | 22.5 | 0.03 | 2.06 | 2.06 | 93 | 999.3 |
| 20260507090218 | 17 | 249 | 8.0 | 22.5 | 0.05 | 2.06 | 2.06 | 93 | 999.4 |
| 20260507090205 | 17 | 247 | 12.9 | 22.5 | 0.05 | 2.06 | 2.06 | 93 | 999.2 |
| 20260507090116 | 17 | 231 | 8.0 | 22.5 | 0.05 | 2.06 | 2.06 | 93 | 999.4 |
| 20260507085804 | 17 | 221 | 12.9 | 22.5 | 0.05 | 2.06 | 2.06 | 93 | 999.4 |
| 20260507085704 | 17 | 233 | 8.0 | 22.5 | 0.05 | 2.06 | 2.06 | 94 | 999.7 |
| 20260507085604 | 17 | 250 | 11.3 | 22.5 | 0.05 | 2.06 | 2.06 | 94 | 999.6 |
| 20260507085503 | 18 | 257 | 12.9 | 22.5 | 0.05 | 2.06 | 2.06 | 94 | 999.7 |
| 20260507085416 | 18 | 257 | 9.7 | 17.7 | 0.05 | 2.06 | 2.06 | 94 | 999.6 |
| 20260507085403 | 18 | 255 | 8.0 | 17.7 | 0.05 | 2.06 | 2.06 | 94 | 999.9 |
| 20260507085306 | 18 | 252 | 12.9 | 17.7 | 0.05 | 2.06 | 2.06 | 94 | 999.7 |
| 20260507085104 | 18 | 242 | 6.4 | 17.7 | 0.05 | 2.06 | 2.06 | 94 | 999.8 |
| 20260507085004 | 18 | 248 | 6.4 | 12.9 | 0.05 | 2.06 | 2.06 | 94 | 999.6 |
| 20260507084904 | 18 | 245 | 6.4 | 12.9 | 0.05 | 2.06 | 2.06 | 94 | 1000.0 |
| 20260507084804 | 18 | 241 | 4.8 | 11.3 | 0.05 | 2.06 | 2.06 | 94 | 999.7 |
| 20260507084704 | 18 | 247 | 6.4 | 11.3 | 0.05 | 2.06 | 2.06 | 94 | 999.8 |
| 20260507084615 | 18 | 241 | 4.8 | 11.3 | 0.05 | 2.06 | 2.06 | 94 | 999.8 |
| 20260507084604 | 18 | 241 | 6.4 | 12.9 | 0.05 | 2.06 | 2.06 | 94 | 999.9 |
| 20260507084503 | 18 | 232 | 6.4 | 12.9 | 0.05 | 2.06 | 2.06 | 94 | 999.8 |
| 20260507084417 | 18 | 225 | 6.4 | 12.9 | 0.05 | 2.06 | 2.06 | 94 | 999.7 |
| 20260507084303 | 18 | 228 | 4.8 | 12.9 | 0.05 | 2.06 | 2.06 | 94 | 999.8 |
| 20260507084118 | 18 | 233 | 6.4 | 12.9 | 0.05 | 2.06 | 2.06 | 94 | 999.7 |
| 20260507084105 | 18 | 231 | 6.4 | 12.9 | 0.05 | 2.06 | 2.06 | 94 | 999.7 |
| 20260507084003 | 18 | 228 | 4.8 | 12.9 | 0.05 | 2.06 | 2.06 | 94 | 999.8 |
| 20260507083717 | 18 | 232 | 4.8 | 12.9 | 0.05 | 2.06 | 2.06 | 94 | 1000.1 |
| 20260507083705 | 18 | 233 | 4.8 | 12.9 | 0.05 | 2.06 | 2.06 | 94 | 1000.1 |
| 20260507083605 | 18 | 238 | 6.4 | 14.5 | 0.05 | 2.06 | 2.06 | 94 | 1000.2 |
| 20260507083404 | 18 | 240 | 6.4 | 14.5 | 0.05 | 2.06 | 2.06 | 94 | 1000.2 |
| 20260507083303 | 18 | 240 | 6.4 | 14.5 | 0.05 | 2.06 | 2.06 | 94 | 1000.1 |
| 20260507083203 | 18 | 239 | 6.4 | 14.5 | 0.05 | 2.06 | 2.06 | 94 | 1000.2 |
| 20260507083119 | 18 | 240 | 6.4 | 14.5 | 0.05 | 2.06 | 2.06 | 94 | 1000.0 |
| 20260507083103 | 18 | 241 | 6.4 | 14.5 | 0.05 | 2.06 | 2.06 | 94 | 1000.0 |
| 20260507083004 | 18 | 244 | 4.8 | 14.5 | 0.05 | 2.06 | 2.06 | 94 | 1000.0 |
| 20260507082803 | 18 | 230 | 3.2 | 14.5 | 0.05 | 2.06 | 2.06 | 94 | 999.7 |
| 20260507082703 | 18 | 226 | 3.2 | 22.5 | 0.05 | 2.06 | 2.06 | 94 | 999.8 |
| 20260507082603 | 18 | 233 | 4.8 | 22.5 | 0.05 | 2.06 | 2.06 | 94 | 999.7 |
| 20260507082515 | 18 | 216 | 6.4 | 22.5 | 0.05 | 2.06 | 2.06 | 94 | 999.7 |
| 20260507082403 | 18 | 214 | 6.4 | 22.5 | 0.05 | 2.06 | 2.06 | 94 | 999.6 |
| 20260507082203 | 18 | 228 | 9.7 | 17.7 | 0.05 | 2.06 | 2.06 | 94 | 999.4 |
| 20260507082103 | 18 | 214 | 6.4 | 17.7 | 0.05 | 2.06 | 2.06 | 95 | 999.5 |
| 20260507082003 | 18 | 234 | 8.0 | 14.5 | 0.05 | 2.06 | 2.06 | 95 | 999.5 |
| 20260507081903 | 18 | 244 | 6.4 | 14.5 | 0.05 | 2.06 | 2.06 | 95 | 999.4 |
| 20260507081816 | 18 | 243 | 8.0 | 14.5 | 0.05 | 2.06 | 2.06 | 95 | 999.4 |
| 20260507081805 | 18 | 239 | 6.4 | 14.5 | 0.05 | 2.06 | 2.06 | 95 | 999.5 |
| 20260507081703 | 18 | 229 | 6.4 | 14.5 | 0.05 | 2.06 | 2.06 | 95 | 999.5 |
| 20260507081618 | 18 | 228 | 6.4 | 14.5 | 0.05 | 2.06 | 2.06 | 95 | 999.5 |
| 20260507081503 | 18 | 230 | 4.8 | 12.9 | 0.05 | 2.06 | 2.06 | 95 | 999.6 |
| 20260507081305 | 18 | 228 | 4.8 | 9.7 | 0.05 | 2.06 | 2.06 | 95 | 999.7 |
| 20260507081204 | 18 | 229 | 3.2 | 6.4 | 0.05 | 2.06 | 2.06 | 95 | 999.8 |
| 20260507081104 | 18 | 231 | 3.2 | 6.4 | 0.03 | 2.03 | 2.06 | 95 | 1000.2 |
| 20260507081004 | 18 | 221 | 3.2 | 6.4 | 0.03 | 2.03 | 2.03 | 95 | 1000.3 |
| 20260507080805 | 18 | 211 | 3.2 | 9.7 | 0.03 | 2.03 | 2.03 | 95 | 1000.6 |
| 20260507080704 | 18 | 224 | 4.8 | 9.7 | 0.03 | 2.03 | 2.03 | 95 | 1000.6 |
| 20260507080504 | 18 | 229 | 3.2 | 20.9 | 0.03 | 2.03 | 2.03 | 95 | 1000.4 |
| 20260507080421 | 18 | 236 | 6.4 | 20.9 | 0.03 | 2.03 | 2.03 | 95 | 1000.6 |
| 20260507080403 | 18 | 241 | 6.4 | 20.9 | 0.03 | 2.03 | 2.03 | 95 | 1000.6 |
| 20260507080304 | 18 | 233 | 4.8 | 20.9 | 0.03 | 2.03 | 2.03 | 95 | 1000.4 |
| 20260507080105 | 18 | 216 | 4.8 | 17.7 | 0.00 | 2.01 | 2.01 | 95 | 999.8 |
| 20260507080004 | 18 | 224 | 4.8 | 17.7 | 0.00 | 2.01 | 2.01 | 95 | 999.7 |
| 20260507075904 | 18 | 227 | 4.8 | 17.7 | 0.00 | 2.01 | 2.01 | 95 | 999.5 |
| 20260507075804 | 18 | 233 | 8.0 | 17.7 | 0.00 | 2.01 | 2.01 | 95 | 999.0 |
| 20260507075705 | 18 | 239 | 6.4 | 17.7 | 0.00 | 2.01 | 2.01 | 95 | 999.5 |
| 20260507075615 | 18 | 238 | 6.4 | 12.9 | 0.00 | 2.01 | 2.01 | 95 | 998.8 |
| 20260507075603 | 18 | 236 | 6.4 | 12.9 | 0.00 | 2.01 | 2.01 | 95 | 998.8 |
| 20260507075504 | 18 | 227 | 4.8 | 11.3 | 0.00 | 2.01 | 2.01 | 95 | 999.0 |
| 20260507075306 | 19 | 202 | 4.8 | 11.3 | 0.00 | 2.01 | 2.01 | 95 | 999.1 |
| 20260507075214 | 19 | 203 | 3.2 | 11.3 | 0.00 | 2.01 | 2.01 | 95 | 999.3 |
| 20260507075205 | 19 | 204 | 3.2 | 11.3 | 0.00 | 2.01 | 2.01 | 95 | 999.3 |
| 20260507075118 | 19 | 202 | 6.4 | 11.3 | 0.00 | 2.01 | 2.01 | 95 | 999.0 |
| 20260507074804 | 19 | 231 | 3.2 | 14.5 | 0.00 | 2.01 | 2.01 | 95 | 999.1 |
| 20260507074703 | 19 | 239 | 3.2 | 14.5 | 0.00 | 2.01 | 2.01 | 95 | 998.8 |
| 20260507074603 | 19 | 239 | 4.8 | 14.5 | 0.00 | 2.01 | 2.01 | 95 | 998.8 |
| 20260507074505 | 19 | 225 | 4.8 | 14.5 | 0.00 | 2.01 | 2.01 | 95 | 998.9 |
| 20260507074404 | 19 | 229 | 3.2 | 14.5 | 0.00 | 2.01 | 2.01 | 95 | 999.0 |
| 20260507074304 | 19 | 236 | 6.4 | 14.5 | 0.00 | 2.01 | 2.01 | 95 | 999.0 |
| 20260507074203 | 19 | 240 | 3.2 | 12.9 | 0.00 | 2.01 | 2.01 | 95 | 999.0 |
| 20260507074105 | 19 | 235 | 3.2 | 12.9 | 0.00 | 2.01 | 2.01 | 95 | 998.7 |
| 20260507074004 | 19 | 231 | 3.2 | 12.9 | 0.00 | 2.01 | 2.01 | 95 | 998.6 |
| 20260507073903 | 19 | 220 | 6.4 | 12.9 | 0.00 | 2.01 | 2.01 | 95 | 998.8 |
| 20260507073803 | 19 | 212 | 6.4 | 12.9 | 0.00 | 2.01 | 2.01 | 95 | 998.5 |
| 20260507073703 | 19 | 209 | 6.4 | 12.9 | 0.00 | 2.01 | 2.01 | 95 | 998.4 |
| 20260507073605 | 19 | 206 | 6.4 | 12.9 | 0.00 | 2.01 | 2.01 | 95 | 998.3 |
| 20260507073504 | 19 | 211 | 6.4 | 12.9 | 0.00 | 2.01 | 2.01 | 95 | 998.2 |
| 20260507073419 | 19 | 209 | 6.4 | 12.9 | 0.00 | 2.01 | 2.01 | 95 | 998.3 |
| 20260507073403 | 19 | 213 | 6.4 | 12.9 | 0.00 | 2.01 | 2.01 | 95 | 998.5 |
| 20260507073303 | 19 | 224 | 3.2 | 12.9 | 0.00 | 2.01 | 2.01 | 95 | 998.2 |
| 20260507073103 | 19 | 195 | 4.8 | 17.7 | 0.00 | 2.01 | 2.01 | 95 | 998.3 |
| 20260507073004 | 19 | 197 | 4.8 | 17.7 | 0.00 | 2.01 | 2.01 | 95 | 998.2 |
| 20260507072903 | 19 | 198 | 6.4 | 17.7 | 0.00 | 2.01 | 2.01 | 95 | 998.2 |
| 20260507072803 | 19 | 197 | 6.4 | 17.7 | 0.00 | 2.01 | 2.01 | 95 | 998.3 |
| 20260507072703 | 19 | 195 | 4.8 | 17.7 | 0.00 | 2.01 | 2.01 | 95 | 998.2 |
| 20260507072603 | 19 | 212 | 6.4 | 14.5 | 0.00 | 2.01 | 2.01 | 95 | 998.4 |
| 20260507072505 | 19 | 205 | 8.0 | 14.5 | 0.00 | 2.01 | 2.01 | 95 | 998.3 |
| 20260507072403 | 19 | 198 | 6.4 | 14.5 | 0.00 | 2.01 | 2.01 | 95 | 998.4 |
| 20260507072307 | 19 | 188 | 6.4 | 14.5 | 0.00 | 2.01 | 2.01 | 95 | 998.4 |
| 20260507072203 | 19 | 195 | 9.7 | 14.5 | 0.00 | 2.01 | 2.01 | 95 | 998.4 |
| 20260507072105 | 19 | 192 | 4.8 | 12.9 | 0.00 | 2.01 | 2.01 | 95 | 998.5 |
| 20260507072005 | 19 | 176 | 4.8 | 9.7 | 0.00 | 2.01 | 2.01 | 95 | 998.4 |
| 20260507071905 | 19 | 180 | 4.8 | 9.7 | 0.00 | 2.01 | 2.01 | 95 | 998.6 |
| 20260507071804 | 19 | 195 | 4.8 | 9.7 | 0.00 | 2.01 | 2.01 | 95 | 998.4 |
| 20260507071716 | 19 | 182 | 4.8 | 9.7 | 0.00 | 2.01 | 2.01 | 95 | 998.3 |
| 20260507071705 | 19 | 179 | 4.8 | 9.7 | 0.00 | 2.01 | 2.01 | 95 | 998.3 |
| 20260507071605 | 19 | 174 | 4.8 | 9.7 | 0.00 | 2.01 | 2.01 | 95 | 998.3 |
| 20260507071517 | 19 | 187 | 4.8 | 9.7 | 0.00 | 2.01 | 2.01 | 95 | 998.3 |
| 20260507071403 | 19 | 199 | 3.2 | 6.4 | 0.00 | 2.01 | 2.01 | 95 | 997.9 |
| 20260507071204 | 19 | 210 | 3.2 | 6.4 | 0.00 | 2.01 | 2.01 | 95 | 998.0 |
| 20260507071105 | 19 | 215 | 3.2 | 6.4 | 0.00 | 2.01 | 2.01 | 95 | 998.0 |
| 20260507071004 | 19 | 221 | 3.2 | 6.4 | 0.00 | 2.01 | 2.01 | 95 | 998.0 |
| 20260507070903 | 19 | 225 | 3.2 | 6.4 | 0.00 | 2.01 | 2.01 | 95 | 998.0 |
| 20260507070805 | 19 | 220 | 4.8 | 6.4 | 0.00 | 2.01 | 2.01 | 95 | 998.0 |
| 20260507070704 | 19 | 215 | 3.2 | 6.4 | 0.00 | 2.01 | 2.01 | 95 | 998.2 |
| 20260507070605 | 19 | 193 | 1.6 | 6.4 | 0.00 | 2.01 | 2.01 | 95 | 998.2 |
| 20260507070504 | 19 | 194 | 3.2 | 6.4 | 0.00 | 2.01 | 2.01 | 95 | 998.1 |
| 20260507070403 | 19 | 199 | 3.2 | 6.4 | 0.00 | 2.01 | 2.01 | 95 | 998.1 |
| 20260507070304 | 19 | 205 | 3.2 | 6.4 | 0.00 | 2.01 | 2.01 | 95 | 998.0 |
| 20260507070205 | 19 | 211 | 3.2 | 6.4 | 0.00 | 2.01 | 2.01 | 95 | 998.3 |
| 20260507070104 | 19 | 223 | 3.2 | 9.7 | 0.00 | 2.01 | 2.01 | 95 | 998.2 |
| 20260507065904 | 19 | 228 | 3.2 | 9.7 | 0.00 | 2.01 | 2.01 | 95 | 998.3 |
| 20260507065806 | 19 | 218 | 1.6 | 9.7 | 0.00 | 2.01 | 2.01 | 95 | 998.5 |
| 20260507065704 | 19 | 220 | 3.2 | 9.7 | 0.00 | 2.01 | 2.01 | 95 | 998.5 |
| 20260507065603 | 19 | 219 | 4.8 | 9.7 | 0.00 | 2.01 | 2.01 | 95 | 998.6 |
| 20260507065503 | 19 | 222 | 3.2 | 6.4 | 0.00 | 2.01 | 2.01 | 95 | 998.6 |
| 20260507065404 | 19 | 219 | 3.2 | 9.7 | 0.00 | 2.01 | 2.01 | 95 | 998.4 |
| 20260507065307 | 19 | 228 | 3.2 | 9.7 | 0.00 | 2.01 | 2.01 | 95 | 998.6 |
| 20260507065205 | 19 | 229 | 3.2 | 9.7 | 0.00 | 2.01 | 2.01 | 95 | 998.3 |
| 20260507065104 | 19 | 232 | 3.2 | 9.7 | 0.00 | 2.01 | 2.01 | 95 | 998.4 |
| 20260507065017 | 19 | 233 | 3.2 | 9.7 | 0.00 | 2.01 | 2.01 | 95 | 998.5 |
| 20260507065004 | 19 | 234 | 4.8 | 9.7 | 0.00 | 2.01 | 2.01 | 95 | 998.5 |
| 20260507064904 | 19 | 233 | 3.2 | 6.4 | 0.00 | 2.01 | 2.01 | 95 | 998.3 |
| 20260507064703 | 19 | 227 | 3.2 | 6.4 | 0.00 | 2.01 | 2.01 | 95 | 998.4 |
| 20260507064603 | 19 | 226 | 3.2 | 6.4 | 0.00 | 2.01 | 2.01 | 95 | 998.4 |
| 20260507064504 | 19 | 234 | 3.2 | 6.4 | 0.00 | 2.01 | 2.01 | 95 | 998.5 |
| 20260507064405 | 19 | 237 | 3.2 | 6.4 | 0.00 | 2.01 | 2.01 | 95 | 998.4 |
| 20260507064304 | 19 | 237 | 3.2 | 6.4 | 0.00 | 2.01 | 2.01 | 95 | 998.4 |
| 20260507064203 | 19 | 242 | 0.0 | 6.4 | 0.00 | 2.01 | 2.01 | 95 | 998.1 |
| 20260507064105 | 19 | 240 | 1.6 | 6.4 | 0.00 | 2.01 | 2.01 | 94 | 998.3 |
| 20260507064006 | 19 | 232 | 3.2 | 6.4 | 0.00 | 2.01 | 2.01 | 94 | 998.3 |
| 20260507063906 | 19 | 230 | 3.2 | 6.4 | 0.00 | 2.01 | 2.01 | 94 | 998.1 |
| 20260507063804 | 19 | 232 | 3.2 | 6.4 | 0.00 | 2.01 | 2.01 | 94 | 998.1 |
| 20260507063703 | 19 | 231 | 3.2 | 6.4 | 0.00 | 2.01 | 2.01 | 94 | 997.9 |
| 20260507063603 | 19 | 230 | 1.6 | 6.4 | 0.00 | 2.01 | 2.01 | 94 | 998.0 |
| 20260507063414 | 19 | 233 | 3.2 | 9.7 | 0.05 | 2.01 | 2.01 | 94 | 997.9 |
| 20260507063308 | 19 | 226 | 3.2 | 9.7 | 0.13 | 2.01 | 2.01 | 94 | 998.0 |
| 20260507063103 | 19 | 222 | 3.2 | 9.7 | 0.28 | 2.01 | 2.01 | 94 | 998.2 |
| 20260507063005 | 19 | 217 | 3.2 | 9.7 | 0.36 | 2.01 | 2.01 | 94 | 998.1 |
| 20260507062917 | 19 | 215 | 4.8 | 9.7 | 0.36 | 2.01 | 2.01 | 94 | 997.9 |
| 20260507062903 | 19 | 217 | 4.8 | 9.7 | 0.36 | 2.01 | 2.01 | 94 | 997.9 |
| 20260507062803 | 19 | 223 | 3.2 | 6.4 | 0.36 | 2.01 | 2.01 | 94 | 998.0 |
| 20260507062604 | 19 | 233 | 3.2 | 6.4 | 0.36 | 2.01 | 2.01 | 94 | 997.7 |
| 20260507062504 | 19 | 230 | 3.2 | 6.4 | 0.36 | 2.01 | 2.01 | 94 | 997.9 |
| 20260507062404 | 19 | 230 | 3.2 | 6.4 | 0.36 | 2.01 | 2.01 | 94 | 997.9 |
| 20260507062306 | 19 | 230 | 3.2 | 6.4 | 0.36 | 2.01 | 2.01 | 94 | 997.7 |
| 20260507062218 | 19 | 226 | 3.2 | 6.4 | 0.36 | 2.03 | 2.01 | 94 | 997.8 |
| 20260507062207 | 19 | 226 | 3.2 | 6.4 | 0.36 | 2.03 | 2.01 | 94 | 997.7 |
| 20260507061904 | 19 | 240 | 3.2 | 6.4 | 0.36 | 2.03 | 2.01 | 94 | 997.6 |
| 20260507061804 | 19 | 242 | 3.2 | 6.4 | 0.38 | 2.03 | 2.01 | 94 | 997.5 |
| 20260507061705 | 19 | 243 | 3.2 | 6.4 | 0.38 | 2.03 | 2.01 | 94 | 997.5 |
| 20260507061604 | 19 | 243 | 3.2 | 6.4 | 0.43 | 2.03 | 2.01 | 94 | 997.8 |
| 20260507061504 | 19 | 239 | 3.2 | 6.4 | 0.43 | 2.11 | 2.01 | 94 | 997.7 |
| 20260507061404 | 19 | 235 | 1.6 | 6.4 | 0.43 | 2.11 | 2.01 | 94 | 997.9 |
| 20260507061305 | 19 | 232 | 1.6 | 6.4 | 0.43 | 2.11 | 2.01 | 94 | 997.9 |
| 20260507061218 | 19 | 234 | 3.2 | 6.4 | 0.43 | 2.11 | 2.01 | 94 | 997.6 |
| 20260507061204 | 19 | 233 | 3.2 | 6.4 | 0.43 | 2.11 | 2.01 | 94 | 997.6 |
| 20260507060904 | 19 | 238 | 3.2 | 6.4 | 0.43 | 2.11 | 2.01 | 94 | 997.6 |
| 20260507060804 | 19 | 246 | 3.2 | 6.4 | 0.43 | 2.11 | 2.01 | 94 | 997.7 |
| 20260507060704 | 19 | 252 | 3.2 | 6.4 | 0.43 | 2.11 | 2.01 | 94 | 998.1 |
| 20260507060603 | 19 | 255 | 1.6 | 6.4 | 0.43 | 2.13 | 2.01 | 94 | 997.9 |
| 20260507060513 | 19 | 255 | 1.6 | 6.4 | 0.43 | 2.13 | 2.01 | 94 | 998.0 |
| 20260507060503 | 19 | 254 | 1.6 | 6.4 | 0.43 | 2.13 | 2.01 | 94 | 998.0 |
| 20260507060406 | 19 | 253 | 3.2 | 6.4 | 0.43 | 2.13 | 2.01 | 94 | 998.2 |
| 20260507060205 | 19 | 245 | 1.6 | 6.4 | 0.43 | 2.16 | 2.01 | 94 | 998.0 |
| 20260507060103 | 19 | 244 | 0.0 | 6.4 | 0.43 | 2.16 | 2.01 | 94 | 997.6 |
| 20260507060004 | 19 | 243 | 1.6 | 6.4 | 0.43 | 2.16 | 2.01 | 94 | 997.9 |
| 20260507055904 | 19 | 246 | 3.2 | 6.4 | 0.43 | 2.16 | 2.01 | 94 | 997.6 |
| 20260507055803 | 19 | 246 | 1.6 | 6.4 | 0.43 | 2.16 | 2.01 | 94 | 997.7 |
| 20260507055703 | 19 | 246 | 3.2 | 6.4 | 0.43 | 2.16 | 2.01 | 94 | 997.8 |
| 20260507055604 | 19 | 244 | 3.2 | 6.4 | 0.43 | 2.16 | 2.01 | 94 | 997.8 |
| 20260507055503 | 19 | 256 | 1.6 | 3.2 | 0.43 | 2.16 | 2.01 | 94 | 997.8 |
| 20260507055418 | 19 | 270 | 1.6 | 3.2 | 0.43 | 2.16 | 2.01 | 94 | 997.8 |
| 20260507055406 | 19 | 0 | 0.0 | 0.0 | 0.43 | 2.16 | 2.01 | 94 | 997.9 |
| 20260507055317 | 19 | 0 | 0.0 | 0.0 | 0.43 | 2.16 | 2.01 | 93 | 997.7 |
| 20260507055004 | 19 | 258 | 0.0 | 3.2 | 0.43 | 2.16 | 2.01 | 93 | 997.8 |
| 20260507054907 | 19 | 258 | 0.0 | 3.2 | 0.43 | 2.16 | 2.01 | 93 | 997.8 |
| 20260507054806 | 19 | 255 | 0.0 | 3.2 | 0.43 | 2.16 | 2.01 | 93 | 998.1 |
| 20260507054703 | 19 | 255 | 0.0 | 3.2 | 0.43 | 2.16 | 2.01 | 93 | 997.9 |
| 20260507054603 | 19 | 247 | 0.0 | 3.2 | 0.43 | 2.16 | 2.01 | 93 | 998.1 |
| 20260507054503 | 19 | 236 | 0.0 | 3.2 | 0.43 | 2.16 | 2.01 | 93 | 998.0 |
| 20260507054414 | 19 | 221 | 0.0 | 6.4 | 0.43 | 2.16 | 2.01 | 93 | 997.9 |
| 20260507054405 | 19 | 218 | 0.0 | 6.4 | 0.43 | 2.16 | 2.01 | 93 | 997.9 |
| 20260507054303 | 19 | 210 | 0.0 | 6.4 | 0.43 | 2.16 | 2.01 | 93 | 997.9 |
| 20260507054105 | 19 | 227 | 0.0 | 6.4 | 0.43 | 2.16 | 2.01 | 92 | 998.1 |
| 20260507054005 | 19 | 232 | 1.6 | 6.4 | 0.43 | 2.16 | 2.01 | 92 | 998.1 |
| 20260507053917 | 19 | 233 | 3.2 | 9.7 | 0.43 | 2.16 | 2.01 | 92 | 998.2 |
| 20260507053804 | 19 | 234 | 4.8 | 9.7 | 0.43 | 2.16 | 2.01 | 92 | 998.5 |
| 20260507053605 | 19 | 224 | 1.6 | 9.7 | 0.43 | 2.16 | 2.01 | 92 | 998.4 |
| 20260507053504 | 19 | 226 | 3.2 | 9.7 | 0.43 | 2.13 | 1.98 | 92 | 998.5 |
| 20260507053415 | 19 | 225 | 6.4 | 9.7 | 0.38 | 2.11 | 1.98 | 92 | 998.4 |
| 20260507053404 | 20 | 228 | 3.2 | 12.9 | 0.38 | 2.11 | 1.96 | 92 | 998.6 |
| 20260507053306 | 20 | 232 | 3.2 | 12.9 | 0.33 | 2.03 | 1.88 | 91 | 998.4 |
| 20260507053104 | 20 | 239 | 3.2 | 12.9 | 0.23 | 1.88 | 1.80 | 91 | 998.7 |
| 20260507053004 | 20 | 231 | 6.4 | 12.9 | 0.18 | 1.80 | 1.65 | 91 | 998.6 |
| 20260507052913 | 20 | 226 | 6.4 | 12.9 | 0.18 | 1.80 | 1.65 | 91 | 998.6 |
| 20260507052905 | 20 | 223 | 6.4 | 12.9 | 0.18 | 1.80 | 1.65 | 91 | 998.6 |
| 20260507052804 | 20 | 217 | 4.8 | 11.3 | 0.18 | 1.80 | 1.65 | 91 | 998.6 |
| 20260507052604 | 20 | 208 | 6.4 | 11.3 | 0.18 | 1.80 | 1.65 | 91 | 998.1 |
| 20260507052504 | 20 | 212 | 4.8 | 11.3 | 0.18 | 1.80 | 1.65 | 92 | 998.1 |
| 20260507052407 | 20 | 217 | 4.8 | 11.3 | 0.18 | 1.80 | 1.65 | 91 | 997.5 |
| 20260507052306 | 20 | 226 | 6.4 | 11.3 | 0.18 | 1.80 | 1.65 | 92 | 997.7 |
| 20260507052204 | 20 | 231 | 6.4 | 11.3 | 0.18 | 1.80 | 1.65 | 92 | 997.6 |
| 20260507052104 | 20 | 232 | 4.8 | 9.7 | 0.18 | 1.80 | 1.65 | 92 | 997.7 |
| 20260507052015 | 20 | 209 | 1.6 | 6.4 | 0.18 | 1.80 | 1.65 | 91 | 997.6 |
| 20260507052004 | 20 | 201 | 1.6 | 6.4 | 0.18 | 1.80 | 1.65 | 91 | 997.6 |
| 20260507051906 | 20 | 198 | 3.2 | 9.7 | 0.28 | 1.80 | 1.65 | 91 | 997.9 |
| 20260507051704 | 20 | 182 | 1.6 | 11.3 | 0.36 | 1.78 | 1.63 | 91 | 997.6 |
| 20260507051605 | 20 | 192 | 3.2 | 11.3 | 0.36 | 1.75 | 1.60 | 91 | 997.8 |
| 20260507051504 | 20 | 204 | 6.4 | 11.3 | 0.46 | 1.75 | 1.60 | 91 | 997.8 |
| 20260507051403 | 20 | 212 | 3.2 | 11.3 | 0.51 | 1.75 | 1.60 | 91 | 997.8 |
| 20260507051305 | 20 | 220 | 6.4 | 11.3 | 0.53 | 1.75 | 1.60 | 91 | 998.0 |
| 20260507051203 | 20 | 235 | 3.2 | 11.3 | 0.61 | 1.75 | 1.60 | 91 | 998.1 |
| 20260507051103 | 20 | 247 | 6.4 | 14.5 | 0.61 | 1.75 | 1.60 | 91 | 997.9 |
| 20260507051004 | 20 | 260 | 3.2 | 14.5 | 0.66 | 1.75 | 1.60 | 91 | 998.3 |
| 20260507050904 | 20 | 266 | 4.8 | 14.5 | 0.71 | 1.75 | 1.60 | 91 | 997.9 |
| 20260507050804 | 20 | 265 | 3.2 | 14.5 | 0.79 | 1.75 | 1.60 | 91 | 997.9 |
| 20260507050704 | 20 | 261 | 3.2 | 14.5 | 0.84 | 1.75 | 1.60 | 91 | 998.0 |
| 20260507050604 | 20 | 253 | 6.4 | 14.5 | 0.86 | 1.75 | 1.60 | 92 | 998.0 |
| 20260507050504 | 20 | 243 | 6.4 | 14.5 | 0.94 | 1.75 | 1.60 | 92 | 997.9 |
| 20260507050404 | 20 | 234 | 6.4 | 14.5 | 0.94 | 1.75 | 1.60 | 92 | 998.1 |
| 20260507050303 | 20 | 238 | 3.2 | 14.5 | 0.97 | 1.75 | 1.60 | 92 | 998.1 |
| 20260507050204 | 20 | 248 | 6.4 | 14.5 | 0.97 | 1.75 | 1.60 | 92 | 998.1 |
| 20260507050005 | 20 | 274 | 9.7 | 14.5 | 0.99 | 1.75 | 1.60 | 93 | 998.4 |
| 20260507045905 | 20 | 283 | 4.8 | 9.7 | 0.99 | 1.75 | 1.60 | 93 | 998.5 |
| 20260507045804 | 20 | 283 | 3.2 | 9.7 | 0.99 | 1.75 | 1.60 | 93 | 998.3 |
| 20260507045713 | 20 | 273 | 1.6 | 9.7 | 1.02 | 1.75 | 1.60 | 93 | 998.5 |
| 20260507045605 | 20 | 263 | 3.2 | 12.9 | 1.04 | 1.75 | 1.60 | 93 | 998.3 |
| 20260507045419 | 20 | 255 | 4.8 | 12.9 | 1.09 | 1.75 | 1.60 | 93 | 998.4 |
| 20260507045403 | 20 | 253 | 3.2 | 12.9 | 1.09 | 1.75 | 1.60 | 93 | 998.3 |
| 20260507045306 | 20 | 251 | 3.2 | 12.9 | 1.12 | 1.75 | 1.60 | 93 | 998.4 |
| 20260507045120 | 20 | 264 | 6.4 | 22.5 | 1.19 | 1.75 | 1.60 | 93 | 998.7 |
| 20260507045004 | 20 | 262 | 4.8 | 22.5 | 1.19 | 1.75 | 1.60 | 93 | 998.7 |
| 20260507044804 | 20 | 260 | 6.4 | 22.5 | 1.22 | 1.75 | 1.60 | 93 | 998.8 |
| 20260507044703 | 20 | 251 | 11.3 | 22.5 | 1.22 | 1.75 | 1.60 | 94 | 998.6 |
| 20260507044604 | 20 | 246 | 9.7 | 17.7 | 1.22 | 1.75 | 1.60 | 94 | 998.3 |
| 20260507044521 | 20 | 251 | 9.7 | 20.9 | 1.27 | 1.75 | 1.60 | 94 | 998.1 |
| 20260507044505 | 20 | 253 | 9.7 | 20.9 | 1.27 | 1.75 | 1.60 | 94 | 998.1 |
| 20260507044403 | 20 | 256 | 6.4 | 20.9 | 1.27 | 1.75 | 1.60 | 94 | 997.6 |
| 20260507044203 | 20 | 264 | 6.4 | 20.9 | 1.42 | 1.75 | 1.60 | 94 | 996.9 |
| 20260507044103 | 20 | 257 | 8.0 | 20.9 | 1.45 | 1.75 | 1.60 | 94 | 996.8 |
| 20260507044004 | 21 | 246 | 11.3 | 20.9 | 1.45 | 1.75 | 1.60 | 95 | 997.1 |
| 20260507043907 | 21 | 238 | 12.9 | 20.9 | 1.50 | 1.75 | 1.60 | 95 | 997.0 |
| 20260507043804 | 21 | 231 | 9.7 | 17.7 | 1.52 | 1.75 | 1.60 | 95 | 997.1 |
| 20260507043604 | 21 | 228 | 4.8 | 12.9 | 1.55 | 1.75 | 1.60 | 95 | 997.5 |
| 20260507043506 | 20 | 235 | 8.0 | 12.9 | 1.55 | 1.70 | 1.60 | 95 | 997.5 |
| 20260507043404 | 21 | 235 | 4.8 | 14.5 | 1.55 | 1.70 | 1.55 | 95 | 997.5 |
| 20260507043303 | 21 | 249 | 6.4 | 17.7 | 1.55 | 1.70 | 1.55 | 95 | 997.6 |
| 20260507043204 | 21 | 240 | 6.4 | 17.7 | 1.55 | 1.70 | 1.55 | 95 | 997.8 |
| 20260507043105 | 20 | 241 | 6.4 | 20.9 | 1.50 | 1.65 | 1.52 | 95 | 997.6 |
| 20260507043004 | 20 | 241 | 6.4 | 27.4 | 1.47 | 1.63 | 1.47 | 95 | 997.7 |
| 20260507042904 | 20 | 246 | 8.0 | 27.4 | 1.47 | 1.63 | 1.47 | 95 | 997.8 |
| 20260507042805 | 20 | 254 | 8.0 | 29.0 | 1.47 | 1.63 | 1.47 | 95 | 998.0 |
| 20260507042703 | 20 | 257 | 9.7 | 29.0 | 1.47 | 1.63 | 1.47 | 95 | 997.8 |
| 20260507042605 | 20 | 260 | 12.9 | 29.0 | 1.47 | 1.63 | 1.47 | 95 | 997.7 |
| 20260507042503 | 20 | 265 | 17.7 | 29.0 | 1.47 | 1.63 | 1.47 | 95 | 997.7 |
| 20260507042404 | 20 | 266 | 12.9 | 29.0 | 1.47 | 1.63 | 1.47 | 95 | 997.2 |
| 20260507042306 | 20 | 262 | 16.1 | 29.0 | 1.47 | 1.63 | 1.47 | 95 | 997.4 |
| 20260507042205 | 20 | 260 | 17.7 | 32.2 | 1.47 | 1.63 | 1.47 | 95 | 997.4 |
| 20260507042103 | 20 | 256 | 17.7 | 37.0 | 1.47 | 1.63 | 1.47 | 95 | 997.2 |
| 20260507042004 | 20 | 242 | 16.1 | 61.2 | 1.47 | 1.63 | 1.47 | 95 | 997.1 |
| 20260507041905 | 20 | 242 | 16.1 | 61.2 | 1.37 | 1.52 | 1.47 | 95 | 997.2 |
| 20260507041803 | 20 | 240 | 19.3 | 61.2 | 1.32 | 1.47 | 1.32 | 95 | 997.0 |
| 20260507041703 | 20 | 245 | 19.3 | 61.2 | 1.27 | 1.42 | 1.27 | 95 | 996.9 |
| 20260507041610 | 21 | 243 | 22.5 | 61.2 | 1.22 | 1.37 | 1.22 | 95 | 996.7 |
| 20260507041504 | 21 | 254 | 24.1 | 61.2 | 1.14 | 1.30 | 1.17 | 95 | 996.9 |
| 20260507041403 | 21 | 263 | 17.7 | 40.2 | 1.09 | 1.22 | 1.09 | 95 | 996.1 |
| 20260507041204 | 21 | 247 | 12.9 | 35.4 | 0.99 | 1.14 | 0.99 | 95 | 996.6 |
| 20260507041006 | 21 | 288 | 20.9 | 35.4 | 0.94 | 1.09 | 0.94 | 94 | 997.0 |
| 20260507040904 | 21 | 264 | 16.1 | 33.8 | 0.86 | 1.02 | 0.86 | 94 | 997.1 |
| 20260507040812 | 21 | 261 | 12.9 | 24.1 | 0.81 | 0.97 | 0.81 | 94 | 997.3 |
| 20260507040803 | 21 | 262 | 12.9 | 24.1 | 0.81 | 0.97 | 0.81 | 94 | 997.3 |
| 20260507040707 | 21 | 262 | 11.3 | 20.9 | 0.76 | 0.89 | 0.79 | 94 | 997.2 |
| 20260507040519 | 21 | 281 | 11.3 | 20.9 | 0.66 | 0.81 | 0.66 | 94 | 997.4 |
| 20260507040505 | 21 | 285 | 11.3 | 20.9 | 0.66 | 0.81 | 0.66 | 94 | 997.4 |
| 20260507040403 | 21 | 289 | 11.3 | 20.9 | 0.66 | 0.81 | 0.66 | 94 | 997.2 |
| 20260507040204 | 21 | 308 | 6.4 | 22.5 | 0.64 | 0.79 | 0.64 | 93 | 996.4 |
| 20260507040104 | 21 | 294 | 11.3 | 22.5 | 0.61 | 0.76 | 0.61 | 93 | 996.4 |
| 20260507040005 | 21 | 276 | 8.0 | 25.7 | 0.61 | 0.76 | 0.61 | 93 | 996.3 |
| 20260507035906 | 21 | 272 | 8.0 | 25.7 | 0.61 | 0.76 | 0.61 | 93 | 996.0 |
| 20260507035804 | 21 | 284 | 9.7 | 25.7 | 0.61 | 0.76 | 0.61 | 93 | 996.0 |
| 20260507035717 | 21 | 281 | 8.0 | 25.7 | 0.56 | 0.71 | 0.56 | 93 | 995.9 |
| 20260507035704 | 21 | 277 | 8.0 | 25.7 | 0.56 | 0.71 | 0.56 | 93 | 995.9 |
| 20260507035604 | 21 | 271 | 12.9 | 25.7 | 0.53 | 0.69 | 0.53 | 93 | 996.1 |
| 20260507035404 | 22 | 293 | 14.5 | 25.7 | 0.51 | 0.66 | 0.51 | 93 | 996.5 |
| 20260507035306 | 22 | 286 | 12.9 | 22.5 | 0.48 | 0.64 | 0.48 | 92 | 996.7 |
| 20260507035205 | 22 | 292 | 12.9 | 22.5 | 0.46 | 0.61 | 0.46 | 92 | 996.3 |
| 20260507035104 | 22 | 303 | 12.9 | 22.5 | 0.38 | 0.53 | 0.46 | 92 | 996.5 |
| 20260507035005 | 23 | 304 | 11.3 | 17.7 | 0.38 | 0.53 | 0.38 | 92 | 996.2 |
| 20260507034806 | 23 | 300 | 8.0 | 17.7 | 0.36 | 0.51 | 0.36 | 92 | 996.1 |
| 20260507034705 | 23 | 306 | 9.7 | 17.7 | 0.36 | 0.51 | 0.36 | 92 | 996.2 |
| 20260507034504 | 23 | 302 | 3.2 | 17.7 | 0.33 | 0.48 | 0.33 | 91 | 995.9 |
| 20260507034404 | 23 | 306 | 6.4 | 17.7 | 0.33 | 0.48 | 0.33 | 91 | 996.2 |
| 20260507034304 | 23 | 308 | 6.4 | 17.7 | 0.20 | 0.36 | 0.28 | 90 | 996.3 |
| 20260507034216 | 23 | 304 | 6.4 | 17.7 | 0.18 | 0.33 | 0.20 | 90 | 996.3 |
| 20260507034204 | 23 | 305 | 4.8 | 17.7 | 0.18 | 0.33 | 0.18 | 90 | 995.9 |
| 20260507034104 | 23 | 312 | 6.4 | 17.7 | 0.15 | 0.30 | 0.15 | 89 | 995.9 |
| 20260507033904 | 23 | 323 | 8.0 | 17.7 | 0.10 | 0.23 | 0.13 | 88 | 995.9 |
| 20260507033815 | 24 | 325 | 6.4 | 17.7 | 0.05 | 0.20 | 0.10 | 88 | 996.1 |
| 20260507033805 | 24 | 325 | 4.8 | 17.7 | 0.05 | 0.20 | 0.05 | 88 | 996.4 |
| 20260507033505 | 24 | 324 | 6.4 | 12.9 | 0.00 | 0.15 | 0.00 | 87 | 996.0 |
| 20260507033405 | 24 | 321 | 6.4 | 11.3 | 0.00 | 0.15 | 0.00 | 86 | 995.8 |
| 20260507033303 | 24 | 321 | 8.0 | 11.3 | 0.00 | 0.15 | 0.00 | 86 | 996.0 |
| 20260507033206 | 25 | 324 | 3.2 | 12.9 | 0.00 | 0.15 | 0.00 | 85 | 996.1 |
| 20260507033115 | 25 | 332 | 4.8 | 17.7 | 0.00 | 0.15 | 0.00 | 85 | 996.3 |
| 20260507033014 | 25 | 334 | 6.4 | 17.7 | 0.00 | 0.15 | 0.00 | 85 | 996.4 |
| 20260507033003 | 25 | 337 | 6.4 | 17.7 | 0.00 | 0.15 | 0.00 | 85 | 996.3 |
| 20260507032704 | 25 | 351 | 6.4 | 20.9 | 0.00 | 0.15 | 0.00 | 84 | 995.8 |
| 20260507032603 | 25 | 347 | 6.4 | 20.9 | 0.00 | 0.15 | 0.00 | 84 | 995.6 |
| 20260507032506 | 25 | 344 | 6.4 | 20.9 | 0.00 | 0.15 | 0.00 | 84 | 995.6 |
| 20260507032403 | 25 | 340 | 3.2 | 20.9 | 0.00 | 0.15 | 0.00 | 84 | 995.6 |
| 20260507032306 | 25 | 337 | 6.4 | 20.9 | 0.00 | 0.15 | 0.00 | 84 | 995.7 |
| 20260507032204 | 25 | 336 | 4.8 | 12.9 | 0.00 | 0.15 | 0.00 | 84 | 995.9 |
| 20260507032104 | 25 | 327 | 6.4 | 14.5 | 0.00 | 0.15 | 0.00 | 84 | 996.1 |
| 20260507031903 | 25 | 329 | 8.0 | 14.5 | 0.00 | 0.15 | 0.00 | 84 | 996.5 |
| 20260507031817 | 25 | 331 | 6.4 | 14.5 | 0.00 | 0.15 | 0.00 | 84 | 996.1 |
| 20260507031804 | 25 | 332 | 6.4 | 14.5 | 0.00 | 0.15 | 0.00 | 84 | 996.2 |
| 20260507031716 | 25 | 325 | 6.4 | 14.5 | 0.00 | 0.15 | 0.00 | 84 | 996.2 |
| 20260507031703 | 25 | 328 | 6.4 | 14.5 | 0.00 | 0.15 | 0.00 | 84 | 996.2 |
| 20260507031403 | 25 | 347 | 4.8 | 11.3 | 0.00 | 0.15 | 0.00 | 84 | 996.4 |
| 20260507031315 | 25 | 350 | 4.8 | 11.3 | 0.00 | 0.15 | 0.00 | 84 | 996.2 |
| 20260507031304 | 25 | 351 | 4.8 | 11.3 | 0.00 | 0.15 | 0.00 | 84 | 996.2 |
| 20260507031214 | 25 | 356 | 3.2 | 9.7 | 0.00 | 0.15 | 0.00 | 84 | 996.1 |
| 20260507031205 | 25 | 358 | 3.2 | 9.7 | 0.00 | 0.15 | 0.00 | 84 | 996.1 |
| 20260507031016 | 25 | 355 | 3.2 | 9.7 | 0.00 | 0.15 | 0.00 | 84 | 996.0 |
| 20260507030905 | 25 | 360 | 6.4 | 9.7 | 0.00 | 0.15 | 0.00 | 84 | 995.7 |
| 20260507030704 | 25 | 360 | 4.8 | 9.7 | 0.00 | 0.15 | 0.00 | 84 | 995.6 |
| 20260507030604 | 25 | 355 | 4.8 | 11.3 | 0.00 | 0.15 | 0.00 | 84 | 995.8 |
| 20260507030504 | 25 | 346 | 6.4 | 11.3 | 0.00 | 0.15 | 0.00 | 84 | 995.8 |
| 20260507030403 | 25 | 338 | 3.2 | 11.3 | 0.00 | 0.15 | 0.00 | 84 | 996.0 |
| 20260507030305 | 25 | 336 | 3.2 | 11.3 | 0.00 | 0.15 | 0.00 | 84 | 996.0 |
| 20260507030220 | 25 | 331 | 6.4 | 11.3 | 0.00 | 0.15 | 0.00 | 84 | 996.3 |
| 20260507030203 | 25 | 327 | 4.8 | 11.3 | 0.00 | 0.15 | 0.00 | 84 | 996.5 |
| 20260507030104 | 25 | 327 | 6.4 | 12.9 | 0.00 | 0.15 | 0.00 | 84 | 996.3 |
| 20260507025903 | 25 | 340 | 4.8 | 12.9 | 0.00 | 0.15 | 0.15 | 84 | 996.1 |
| 20260507025804 | 25 | 344 | 4.8 | 12.9 | 0.00 | 0.15 | 0.15 | 84 | 996.2 |
| 20260507025718 | 25 | 351 | 8.0 | 12.9 | 0.00 | 0.15 | 0.15 | 84 | 996.2 |
| 20260507025704 | 25 | 355 | 8.0 | 12.9 | 0.00 | 0.15 | 0.15 | 84 | 996.2 |
| 20260507025605 | 25 | 4 | 6.4 | 12.9 | 0.00 | 0.15 | 0.15 | 84 | 996.4 |
| 20260507025306 | 25 | 355 | 3.2 | 6.4 | 0.00 | 0.15 | 0.15 | 83 | 996.4 |
| 20260507025203 | 25 | 356 | 3.2 | 11.3 | 0.00 | 0.15 | 0.15 | 83 | 996.5 |
| 20260507025107 | 25 | 353 | 3.2 | 11.3 | 0.00 | 0.15 | 0.15 | 83 | 996.3 |
| 20260507025018 | 25 | 353 | 3.2 | 11.3 | 0.00 | 0.15 | 0.15 | 83 | 996.7 |
| 20260507025005 | 25 | 351 | 3.2 | 11.3 | 0.00 | 0.15 | 0.15 | 83 | 996.7 |
| 20260507024904 | 25 | 347 | 4.8 | 11.3 | 0.00 | 0.15 | 0.15 | 83 | 996.5 |
| 20260507024617 | 25 | 351 | 3.2 | 9.7 | 0.00 | 0.15 | 0.15 | 82 | 996.7 |
| 20260507024605 | 25 | 351 | 3.2 | 9.7 | 0.00 | 0.15 | 0.15 | 82 | 996.6 |
| 20260507024507 | 25 | 350 | 4.8 | 9.7 | 0.00 | 0.15 | 0.15 | 82 | 996.7 |
| 20260507024304 | 25 | 347 | 3.2 | 9.7 | 0.00 | 0.15 | 0.15 | 82 | 996.6 |
| 20260507024205 | 25 | 348 | 6.4 | 9.7 | 0.00 | 0.15 | 0.15 | 82 | 996.7 |
| 20260507024104 | 25 | 341 | 4.8 | 9.7 | 0.00 | 0.15 | 0.15 | 82 | 996.5 |
| 20260507024005 | 25 | 343 | 3.2 | 9.7 | 0.00 | 0.15 | 0.15 | 82 | 997.0 |
| 20260507023904 | 25 | 345 | 3.2 | 9.7 | 0.00 | 0.15 | 0.15 | 82 | 996.9 |
| 20260507023704 | 25 | 4 | 3.2 | 11.3 | 0.00 | 0.15 | 0.15 | 82 | 997.1 |
| 20260507023603 | 25 | 6 | 6.4 | 11.3 | 0.00 | 0.15 | 0.15 | 82 | 997.3 |
| 20260507023503 | 25 | 7 | 6.4 | 12.9 | 0.00 | 0.15 | 0.15 | 82 | 997.0 |
| 20260507023404 | 25 | 5 | 4.8 | 12.9 | 0.00 | 0.15 | 0.15 | 82 | 997.1 |
| 20260507023314 | 25 | 5 | 4.8 | 12.9 | 0.00 | 0.15 | 0.15 | 82 | 997.1 |
| 20260507023304 | 25 | 4 | 4.8 | 12.9 | 0.00 | 0.15 | 0.15 | 82 | 997.1 |
| 20260507023204 | 25 | 1 | 6.4 | 12.9 | 0.00 | 0.15 | 0.15 | 82 | 997.1 |
| 20260507023015 | 25 | 1 | 9.7 | 12.9 | 0.00 | 0.15 | 0.15 | 82 | 997.5 |
| 20260507023003 | 25 | 1 | 4.8 | 9.7 | 0.00 | 0.15 | 0.15 | 83 | 997.4 |
| 20260507022918 | 25 | 3 | 4.8 | 12.9 | 0.00 | 0.15 | 0.15 | 83 | 997.6 |
| 20260507022904 | 25 | 359 | 4.8 | 12.9 | 0.00 | 0.15 | 0.15 | 83 | 997.6 |
| 20260507022604 | 25 | 352 | 6.4 | 12.9 | 0.00 | 0.15 | 0.15 | 83 | 997.3 |
| 20260507022503 | 25 | 351 | 6.4 | 12.9 | 0.00 | 0.15 | 0.15 | 83 | 997.3 |
| 20260507022405 | 25 | 355 | 6.4 | 12.9 | 0.00 | 0.15 | 0.15 | 83 | 997.2 |
| 20260507022306 | 25 | 1 | 3.2 | 12.9 | 0.00 | 0.15 | 0.15 | 83 | 997.3 |
| 20260507022204 | 25 | 357 | 3.2 | 12.9 | 0.00 | 0.15 | 0.15 | 83 | 997.2 |
| 20260507022004 | 25 | 1 | 6.4 | 12.9 | 0.00 | 0.15 | 0.15 | 84 | 997.4 |
| 20260507021903 | 25 | 5 | 8.0 | 12.9 | 0.00 | 0.15 | 0.15 | 84 | 997.4 |
| 20260507021803 | 25 | 355 | 3.2 | 9.7 | 0.00 | 0.15 | 0.15 | 84 | 997.7 |
| 20260507021604 | 25 | 357 | 4.8 | 9.7 | 0.00 | 0.15 | 0.15 | 84 | 997.7 |
| 20260507021503 | 25 | 357 | 3.2 | 9.7 | 0.00 | 0.15 | 0.15 | 84 | 997.7 |
| 20260507021404 | 25 | 358 | 4.8 | 11.3 | 0.00 | 0.15 | 0.15 | 84 | 997.7 |
| 20260507021206 | 25 | 6 | 3.2 | 11.3 | 0.00 | 0.15 | 0.15 | 84 | 997.8 |
| 20260507021104 | 25 | 6 | 4.8 | 11.3 | 0.00 | 0.15 | 0.15 | 84 | 997.5 |
| 20260507021005 | 25 | 6 | 4.8 | 11.3 | 0.00 | 0.15 | 0.15 | 85 | 997.8 |
| 20260507020904 | 25 | 4 | 3.2 | 9.7 | 0.00 | 0.15 | 0.15 | 85 | 997.6 |
| 20260507020807 | 25 | 4 | 4.8 | 9.7 | 0.00 | 0.15 | 0.15 | 85 | 997.6 |
| 20260507020704 | 25 | 4 | 4.8 | 9.7 | 0.00 | 0.15 | 0.15 | 85 | 997.7 |
| 20260507020604 | 25 | 12 | 4.8 | 9.7 | 0.00 | 0.15 | 0.15 | 85 | 997.5 |
| 20260507020505 | 25 | 5 | 3.2 | 9.7 | 0.00 | 0.15 | 0.15 | 85 | 997.7 |
| 20260507020405 | 25 | 360 | 4.8 | 9.7 | 0.00 | 0.15 | 0.15 | 84 | 997.8 |
| 20260507020305 | 25 | 3 | 4.8 | 9.7 | 0.00 | 0.15 | 0.15 | 84 | 997.6 |
| 20260507020204 | 25 | 4 | 4.8 | 9.7 | 0.00 | 0.15 | 0.15 | 84 | 997.7 |
| 20260507020105 | 25 | 1 | 6.4 | 9.7 | 0.00 | 0.15 | 0.15 | 84 | 997.9 |
| 20260507020004 | 25 | 11 | 4.8 | 9.7 | 0.00 | 0.15 | 0.15 | 84 | 997.8 |
| 20260507015904 | 25 | 19 | 4.8 | 6.4 | 0.00 | 0.15 | 0.15 | 84 | 997.9 |
| 20260507015815 | 25 | 20 | 4.8 | 6.4 | 0.00 | 0.15 | 0.15 | 84 | 997.7 |
| 20260507015805 | 25 | 20 | 3.2 | 6.4 | 0.00 | 0.15 | 0.15 | 84 | 997.7 |
| 20260507015705 | 25 | 21 | 3.2 | 6.4 | 0.00 | 0.15 | 0.15 | 84 | 997.8 |
| 20260507015503 | 25 | 13 | 3.2 | 6.4 | 0.00 | 0.15 | 0.15 | 84 | 997.8 |
| 20260507015403 | 25 | 13 | 3.2 | 6.4 | 0.00 | 0.15 | 0.15 | 84 | 997.8 |
| 20260507015318 | 25 | 12 | 3.2 | 6.4 | 0.00 | 0.15 | 0.15 | 84 | 997.9 |
| 20260507015306 | 25 | 10 | 3.2 | 6.4 | 0.00 | 0.15 | 0.15 | 84 | 997.9 |
| 20260507015204 | 25 | 9 | 4.8 | 6.4 | 0.00 | 0.15 | 0.15 | 84 | 997.8 |
| 20260507015004 | 25 | 8 | 1.6 | 6.4 | 0.00 | 0.15 | 0.15 | 84 | 998.2 |
| 20260507014903 | 25 | 7 | 1.6 | 6.4 | 0.00 | 0.15 | 0.15 | 84 | 998.1 |
| 20260507014805 | 25 | 4 | 3.2 | 6.4 | 0.00 | 0.15 | 0.15 | 84 | 997.7 |
| 20260507014704 | 25 | 3 | 3.2 | 6.4 | 0.00 | 0.15 | 0.15 | 84 | 997.8 |
| 20260507014516 | 25 | 5 | 3.2 | 11.3 | 0.00 | 0.15 | 0.15 | 85 | 997.5 |
| 20260507014503 | 25 | 7 | 3.2 | 11.3 | 0.00 | 0.15 | 0.15 | 85 | 997.5 |
| 20260507014407 | 25 | 7 | 3.2 | 14.5 | 0.00 | 0.15 | 0.15 | 85 | 997.7 |
| 20260507014203 | 25 | 7 | 3.2 | 14.5 | 0.00 | 0.15 | 0.15 | 85 | 997.8 |
| 20260507014103 | 25 | 6 | 3.2 | 14.5 | 0.00 | 0.15 | 0.15 | 85 | 997.9 |
| 20260507014004 | 25 | 1 | 6.4 | 14.5 | 0.00 | 0.15 | 0.15 | 86 | 997.9 |
| 20260507013906 | 24 | 360 | 8.0 | 14.5 | 0.00 | 0.15 | 0.15 | 86 | 998.2 |
| 20260507013803 | 24 | 355 | 6.4 | 11.3 | 0.00 | 0.15 | 0.15 | 87 | 997.9 |
| 20260507013703 | 24 | 359 | 4.8 | 11.3 | 0.00 | 0.15 | 0.15 | 87 | 997.9 |
| 20260507013614 | 24 | 354 | 6.4 | 11.3 | 0.00 | 0.15 | 0.15 | 87 | 998.0 |
| 20260507013604 | 24 | 353 | 6.4 | 11.3 | 0.00 | 0.15 | 0.15 | 87 | 998.0 |
| 20260507013504 | 24 | 355 | 3.2 | 11.3 | 0.00 | 0.15 | 0.15 | 87 | 997.8 |
| 20260507013203 | 24 | 3 | 6.4 | 11.3 | 0.00 | 0.15 | 0.15 | 87 | 997.7 |
| 20260507013104 | 24 | 6 | 4.8 | 9.7 | 0.00 | 0.15 | 0.15 | 87 | 997.7 |
| 20260507013004 | 24 | 3 | 3.2 | 9.7 | 0.00 | 0.15 | 0.15 | 87 | 997.9 |
| 20260507012904 | 24 | 360 | 4.8 | 9.7 | 0.00 | 0.15 | 0.15 | 87 | 997.7 |
| 20260507012805 | 24 | 355 | 4.8 | 9.7 | 0.00 | 0.15 | 0.15 | 87 | 997.5 |
| 20260507012703 | 24 | 357 | 3.2 | 9.7 | 0.00 | 0.15 | 0.15 | 87 | 997.8 |
| 20260507012604 | 24 | 360 | 4.8 | 9.7 | 0.00 | 0.15 | 0.15 | 87 | 997.8 |
| 20260507012505 | 24 | 3 | 4.8 | 9.7 | 0.00 | 0.15 | 0.15 | 87 | 997.8 |
| 20260507012403 | 24 | 12 | 3.2 | 9.7 | 0.00 | 0.15 | 0.15 | 87 | 997.5 |
| 20260507012306 | 24 | 21 | 4.8 | 9.7 | 0.00 | 0.15 | 0.15 | 87 | 997.9 |
| 20260507012205 | 24 | 22 | 4.8 | 6.4 | 0.00 | 0.15 | 0.15 | 86 | 998.0 |
| 20260507012104 | 24 | 22 | 3.2 | 6.4 | 0.00 | 0.15 | 0.15 | 86 | 997.6 |
| 20260507012005 | 24 | 26 | 3.2 | 6.4 | 0.00 | 0.15 | 0.15 | 86 | 997.8 |
| 20260507011907 | 24 | 25 | 3.2 | 6.4 | 0.00 | 0.15 | 0.15 | 86 | 998.0 |
| 20260507011805 | 24 | 23 | 3.2 | 6.4 | 0.00 | 0.15 | 0.15 | 86 | 998.0 |
| 20260507011704 | 24 | 17 | 3.2 | 9.7 | 0.00 | 0.15 | 0.15 | 86 | 997.9 |
| 20260507011621 | 24 | 13 | 3.2 | 9.7 | 0.00 | 0.15 | 0.15 | 86 | 998.0 |
| 20260507011604 | 24 | 14 | 3.2 | 9.7 | 0.00 | 0.15 | 0.15 | 86 | 998.0 |
| 20260507011504 | 24 | 15 | 3.2 | 9.7 | 0.00 | 0.15 | 0.15 | 86 | 998.0 |
| 20260507011304 | 25 | 359 | 3.2 | 11.3 | 0.00 | 0.15 | 0.15 | 85 | 998.2 |
| 20260507011209 | 25 | 354 | 4.8 | 11.3 | 0.00 | 0.15 | 0.15 | 85 | 997.7 |
| 20260507011004 | 25 | 353 | 4.8 | 11.3 | 0.00 | 0.15 | 0.15 | 85 | 997.9 |
| 20260507010904 | 25 | 351 | 6.4 | 11.3 | 0.00 | 0.15 | 0.15 | 85 | 997.9 |
| 20260507010804 | 25 | 354 | 6.4 | 11.3 | 0.00 | 0.15 | 0.15 | 85 | 997.6 |
| 20260507010706 | 25 | 350 | 6.4 | 11.3 | 0.00 | 0.15 | 0.15 | 85 | 997.9 |
| 20260507010617 | 25 | 346 | 6.4 | 11.3 | 0.00 | 0.15 | 0.15 | 85 | 997.9 |
| 20260507010604 | 25 | 344 | 6.4 | 11.3 | 0.00 | 0.15 | 0.15 | 84 | 997.9 |
| 20260507010505 | 25 | 350 | 6.4 | 11.3 | 0.00 | 0.15 | 0.15 | 84 | 997.8 |
| 20260507010304 | 25 | 352 | 4.8 | 11.3 | 0.00 | 0.15 | 0.15 | 84 | 998.0 |
| 20260507010216 | 25 | 357 | 4.8 | 11.3 | 0.00 | 0.15 | 0.15 | 84 | 997.9 |
| 20260507010205 | 25 | 360 | 4.8 | 11.3 | 0.00 | 0.15 | 0.15 | 84 | 998.0 |
| 20260507010120 | 25 | 360 | 6.4 | 11.3 | 0.00 | 0.15 | 0.15 | 84 | 998.2 |
| 20260507005803 | 25 | 6 | 4.8 | 9.7 | 0.00 | 0.15 | 0.15 | 83 | 998.3 |
| 20260507005707 | 25 | 12 | 4.8 | 9.7 | 0.00 | 0.15 | 0.15 | 83 | 998.2 |
| 20260507005603 | 25 | 12 | 3.2 | 9.7 | 0.00 | 0.15 | 0.15 | 84 | 998.3 |
| 20260507005404 | 25 | 13 | 3.2 | 9.7 | 0.00 | 0.15 | 0.15 | 83 | 998.6 |
| 20260507005306 | 25 | 9 | 3.2 | 9.7 | 0.00 | 0.15 | 0.15 | 83 | 998.7 |
| 20260507005205 | 25 | 7 | 4.8 | 9.7 | 0.00 | 0.15 | 0.15 | 83 | 998.8 |
| 20260507005104 | 25 | 8 | 4.8 | 9.7 | 0.00 | 0.15 | 0.15 | 83 | 998.5 |
| 20260507005003 | 25 | 359 | 4.8 | 6.4 | 0.00 | 0.15 | 0.15 | 84 | 998.7 |
| 20260507004903 | 25 | 356 | 4.8 | 6.4 | 0.00 | 0.15 | 0.15 | 84 | 998.8 |
| 20260507004803 | 25 | 351 | 3.2 | 6.4 | 0.00 | 0.15 | 0.15 | 84 | 998.6 |
| 20260507004704 | 25 | 343 | 3.2 | 6.4 | 0.00 | 0.15 | 0.15 | 84 | 998.6 |
| 20260507004605 | 25 | 338 | 3.2 | 6.4 | 0.00 | 0.15 | 0.15 | 84 | 999.0 |
| 20260507004403 | 25 | 343 | 3.2 | 6.4 | 0.00 | 0.15 | 0.15 | 84 | 998.9 |
| 20260507004303 | 25 | 344 | 3.2 | 6.4 | 0.00 | 0.15 | 0.15 | 84 | 999.0 |
| 20260507004203 | 25 | 348 | 3.2 | 6.4 | 0.00 | 0.15 | 0.15 | 84 | 998.9 |
| 20260507004105 | 25 | 360 | 3.2 | 3.2 | 0.00 | 0.15 | 0.15 | 84 | 999.2 |
| 20260507004005 | 25 | 360 | 1.6 | 3.2 | 0.00 | 0.15 | 0.15 | 85 | 999.0 |
| 20260507003904 | 25 | 360 | 0.0 | 3.2 | 0.00 | 0.15 | 0.15 | 85 | 999.1 |
| 20260507003803 | 25 | 360 | 0.0 | 3.2 | 0.00 | 0.15 | 0.15 | 85 | 998.9 |
| 20260507003605 | 25 | 360 | 0.0 | 3.2 | 0.00 | 0.15 | 0.15 | 85 | 999.0 |
| 20260507003505 | 25 | 360 | 0.0 | 3.2 | 0.00 | 0.15 | 0.15 | 85 | 999.2 |
| 20260507003404 | 25 | 360 | 0.0 | 3.2 | 0.00 | 0.15 | 0.15 | 85 | 999.0 |
| 20260507003303 | 25 | 0 | 0.0 | 0.0 | 0.00 | 0.15 | 0.15 | 85 | 998.9 |
| 20260507003203 | 25 | 0 | 0.0 | 0.0 | 0.00 | 0.15 | 0.15 | 85 | 999.3 |
| 20260507003106 | 25 | 0 | 0.0 | 0.0 | 0.00 | 0.15 | 0.15 | 85 | 998.8 |
| 20260507003016 | 25 | 0 | 0.0 | 0.0 | 0.00 | 0.15 | 0.15 | 85 | 998.8 |
| 20260507002708 | 25 | 0 | 0.0 | 0.0 | 0.00 | 0.15 | 0.15 | 85 | 998.8 |
| 20260507002604 | 25 | 22 | 0.0 | 3.2 | 0.00 | 0.15 | 0.15 | 85 | 998.9 |
| 20260507002504 | 25 | 22 | 0.0 | 3.2 | 0.00 | 0.15 | 0.15 | 85 | 998.8 |
| 20260507002405 | 25 | 30 | 0.0 | 3.2 | 0.00 | 0.15 | 0.15 | 85 | 998.9 |
| 20260507002306 | 25 | 30 | 0.0 | 3.2 | 0.00 | 0.15 | 0.15 | 85 | 998.5 |
| 20260507002204 | 25 | 27 | 0.0 | 3.2 | 0.00 | 0.15 | 0.15 | 85 | 998.7 |
| 20260507002004 | 25 | 26 | 0.0 | 3.2 | 0.00 | 0.15 | 0.15 | 85 | 998.7 |
| 20260507001904 | 25 | 19 | 1.6 | 3.2 | 0.00 | 0.15 | 0.15 | 85 | 998.7 |
| 20260507001718 | 25 | 12 | 0.0 | 3.2 | 0.00 | 0.15 | 0.15 | 85 | 998.4 |
| 20260507001704 | 25 | 11 | 0.0 | 3.2 | 0.00 | 0.15 | 0.15 | 85 | 998.4 |
| 20260507001605 | 25 | 10 | 1.6 | 3.2 | 0.00 | 0.15 | 0.15 | 85 | 998.5 |
| 20260507001405 | 25 | 13 | 0.0 | 3.2 | 0.00 | 0.15 | 0.15 | 85 | 998.6 |
| 20260507001304 | 25 | 11 | 0.0 | 3.2 | 0.00 | 0.15 | 0.15 | 85 | 998.4 |
| 20260507001204 | 25 | 11 | 1.6 | 3.2 | 0.00 | 0.15 | 0.15 | 85 | 998.5 |
| 20260507001106 | 25 | 9 | 1.6 | 3.2 | 0.00 | 0.15 | 0.15 | 85 | 998.5 |
| 20260507001004 | 25 | 8 | 1.6 | 3.2 | 0.00 | 0.15 | 0.15 | 84 | 998.4 |
| 20260507000916 | 25 | 8 | 1.6 | 3.2 | 0.00 | 0.15 | 0.15 | 84 | 998.5 |
| 20260507000903 | 25 | 10 | 1.6 | 3.2 | 0.00 | 0.15 | 0.15 | 84 | 998.5 |
| 20260507000806 | 25 | 11 | 1.6 | 3.2 | 0.00 | 0.15 | 0.15 | 84 | 998.5 |
| 20260507000604 | 25 | 18 | 1.6 | 3.2 | 0.00 | 0.15 | 0.15 | 84 | 998.3 |
| 20260507000504 | 25 | 13 | 3.2 | 3.2 | 0.00 | 0.15 | 0.15 | 84 | 998.3 |
| 20260507000405 | 25 | 8 | 3.2 | 3.2 | 0.00 | 0.15 | 0.15 | 84 | 998.2 |
| 20260507000306 | 25 | 7 | 1.6 | 3.2 | 0.00 | 0.15 | 0.15 | 84 | 998.5 |
| 20260507000206 | 25 | 7 | 3.2 | 3.2 | 0.00 | 0.15 | 0.15 | 84 | 998.3 |
| 20260506235903 | 25 | 360 | 3.2 | 6.4 | 0.00 | 0.15 | 0.15 | 84 | 998.2 |
| 20260506235804 | 25 | 360 | 3.2 | 6.4 | 0.00 | 0.15 | 0.15 | 84 | 998.3 |
| 20260506235604 | 25 | 360 | 3.2 | 6.4 | 0.00 | 0.15 | 0.15 | 84 | 998.2 |
| 20260506235504 | 25 | 360 | 3.2 | 9.7 | 0.00 | 0.15 | 0.15 | 84 | 998.2 |
| 20260506235306 | 25 | 360 | 4.8 | 9.7 | 0.00 | 0.15 | 0.15 | 84 | 998.0 |
| 20260506235204 | 25 | 3 | 4.8 | 9.7 | 0.00 | 0.15 | 0.15 | 84 | 997.9 |
| 20260506235104 | 25 | 359 | 4.8 | 9.7 | 0.00 | 0.15 | 0.15 | 84 | 998.1 |
| 20260506235004 | 25 | 5 | 3.2 | 9.7 | 0.00 | 0.15 | 0.15 | 84 | 997.9 |
| 20260506234904 | 25 | 8 | 3.2 | 9.7 | 0.00 | 0.15 | 0.15 | 84 | 997.9 |
| 20260506234817 | 25 | 4 | 1.6 | 9.7 | 0.00 | 0.15 | 0.15 | 84 | 997.8 |
| 20260506234805 | 25 | 3 | 1.6 | 9.7 | 0.00 | 0.15 | 0.15 | 84 | 997.8 |
| 20260506234704 | 25 | 1 | 3.2 | 9.7 | 0.00 | 0.15 | 0.15 | 84 | 998.0 |
| 20260506234504 | 25 | 358 | 3.2 | 9.7 | 0.00 | 0.15 | 0.15 | 84 | 997.8 |
| 20260506234416 | 25 | 357 | 3.2 | 9.7 | 0.00 | 0.15 | 0.15 | 84 | 997.7 |
| 20260506234404 | 25 | 358 | 3.2 | 9.7 | 0.00 | 0.15 | 0.15 | 84 | 997.7 |
| 20260506234304 | 25 | 2 | 4.8 | 9.7 | 0.00 | 0.15 | 0.15 | 84 | 997.9 |
| 20260506234213 | 25 | 5 | 4.8 | 6.4 | 0.00 | 0.15 | 0.15 | 84 | 997.8 |
| 20260506233903 | 25 | 1 | 4.8 | 6.4 | 0.00 | 0.15 | 0.15 | 84 | 997.9 |
| 20260506233803 | 25 | 356 | 3.2 | 6.4 | 0.00 | 0.15 | 0.15 | 84 | 997.8 |
| 20260506233605 | 25 | 350 | 3.2 | 6.4 | 0.00 | 0.15 | 0.15 | 84 | 997.7 |
| 20260506233505 | 25 | 353 | 3.2 | 6.4 | 0.00 | 0.15 | 0.15 | 84 | 997.9 |
| 20260506233403 | 25 | 354 | 3.2 | 6.4 | 0.00 | 0.15 | 0.15 | 84 | 997.9 |
| 20260506233204 | 25 | 360 | 3.2 | 6.4 | 0.00 | 0.15 | 0.15 | 84 | 997.9 |
| 20260506233105 | 25 | 360 | 3.2 | 6.4 | 0.00 | 0.15 | 0.15 | 84 | 998.2 |
| 20260506233007 | 25 | 3 | 1.6 | 6.4 | 0.00 | 0.15 | 0.15 | 84 | 998.0 |
| 20260506232904 | 25 | 3 | 3.2 | 6.4 | 0.00 | 0.15 | 0.15 | 84 | 997.7 |
| 20260506232804 | 25 | 3 | 3.2 | 6.4 | 0.00 | 0.15 | 0.15 | 84 | 998.1 |
| 20260506232703 | 25 | 4 | 3.2 | 6.4 | 0.00 | 0.15 | 0.15 | 84 | 998.0 |
| 20260506232605 | 25 | 4 | 3.2 | 3.2 | 0.00 | 0.15 | 0.15 | 84 | 998.0 |
| 20260506232506 | 25 | 350 | 3.2 | 6.4 | 0.00 | 0.15 | 0.15 | 84 | 998.0 |
| 20260506232404 | 25 | 348 | 1.6 | 6.4 | 0.00 | 0.15 | 0.15 | 84 | 998.1 |
| 20260506232306 | 25 | 357 | 1.6 | 6.4 | 0.00 | 0.15 | 0.15 | 84 | 997.9 |
| 20260506232215 | 25 | 357 | 0.0 | 6.4 | 0.00 | 0.15 | 0.15 | 84 | 998.0 |
| 20260506232204 | 25 | 357 | 0.0 | 6.4 | 0.00 | 0.15 | 0.15 | 84 | 997.8 |
| 20260506232104 | 25 | 359 | 1.6 | 6.4 | 0.00 | 0.15 | 0.15 | 84 | 997.8 |
| 20260506231904 | 25 | 6 | 3.2 | 6.4 | 0.00 | 0.15 | 0.15 | 84 | 997.9 |
| 20260506231805 | 25 | 8 | 3.2 | 6.4 | 0.00 | 0.15 | 0.15 | 84 | 997.9 |
| 20260506231704 | 25 | 5 | 3.2 | 6.4 | 0.00 | 0.15 | 0.15 | 84 | 997.9 |
| 20260506231605 | 25 | 8 | 3.2 | 6.4 | 0.00 | 0.15 | 0.15 | 84 | 997.8 |
| 20260506231505 | 25 | 9 | 3.2 | 6.4 | 0.00 | 0.15 | 0.15 | 84 | 998.0 |
| 20260506231403 | 25 | 18 | 3.2 | 6.4 | 0.00 | 0.15 | 0.15 | 84 | 997.9 |
| 20260506231309 | 25 | 23 | 3.2 | 6.4 | 0.00 | 0.15 | 0.15 | 84 | 998.0 |
| 20260506231205 | 25 | 31 | 3.2 | 6.4 | 0.00 | 0.15 | 0.15 | 84 | 997.8 |
| 20260506231104 | 25 | 33 | 3.2 | 6.4 | 0.00 | 0.15 | 0.15 | 84 | 997.9 |
| 20260506231004 | 25 | 33 | 3.2 | 6.4 | 0.00 | 0.15 | 0.15 | 83 | 997.6 |
| 20260506230917 | 25 | 24 | 4.8 | 6.4 | 0.00 | 0.15 | 0.15 | 83 | 997.8 |
| 20260506230903 | 25 | 19 | 4.8 | 6.4 | 0.00 | 0.15 | 0.15 | 83 | 997.8 |
| 20260506230803 | 25 | 19 | 4.8 | 6.4 | 0.00 | 0.15 | 0.15 | 83 | 997.7 |
| 20260506230603 | 25 | 21 | 3.2 | 6.4 | 0.00 | 0.15 | 0.15 | 83 | 997.5 |
| 20260506230503 | 25 | 15 | 4.8 | 6.4 | 0.00 | 0.15 | 0.15 | 83 | 997.7 |
| 20260506230404 | 25 | 23 | 3.2 | 6.4 | 0.00 | 0.15 | 0.15 | 83 | 997.7 |
| 20260506230303 | 25 | 15 | 3.2 | 6.4 | 0.00 | 0.15 | 0.15 | 83 | 997.7 |
| 20260506230205 | 25 | 3 | 1.6 | 6.4 | 0.00 | 0.15 | 0.15 | 83 | 997.9 |
| 20260506230103 | 25 | 5 | 3.2 | 6.4 | 0.00 | 0.15 | 0.15 | 83 | 997.7 |
| 20260506230004 | 25 | 13 | 3.2 | 6.4 | 0.00 | 0.15 | 0.15 | 83 | 997.6 |
| 20260506225905 | 25 | 15 | 3.2 | 6.4 | 0.00 | 0.15 | 0.15 | 83 | 997.8 |
| 20260506225805 | 25 | 13 | 3.2 | 6.4 | 0.00 | 0.15 | 0.15 | 83 | 997.8 |
| 20260506225715 | 25 | 12 | 3.2 | 6.4 | 0.00 | 0.15 | 0.15 | 83 | 997.7 |
| 20260506225704 | 25 | 15 | 3.2 | 6.4 | 0.00 | 0.15 | 0.15 | 83 | 997.7 |
| 20260506225603 | 25 | 14 | 3.2 | 11.3 | 0.00 | 0.15 | 0.15 | 83 | 997.9 |
| 20260506225517 | 25 | 16 | 3.2 | 11.3 | 0.00 | 0.15 | 0.15 | 83 | 997.6 |
| 20260506225416 | 25 | 18 | 3.2 | 11.3 | 0.00 | 0.15 | 0.15 | 83 | 997.7 |
| 20260506225405 | 25 | 18 | 3.2 | 11.3 | 0.00 | 0.15 | 0.15 | 83 | 998.0 |
| 20260506225106 | 25 | 26 | 6.4 | 11.3 | 0.00 | 0.15 | 0.15 | 83 | 997.7 |
| 20260506225003 | 25 | 23 | 3.2 | 6.4 | 0.00 | 0.15 | 0.15 | 83 | 997.7 |
| 20260506224903 | 25 | 21 | 4.8 | 9.7 | 0.00 | 0.15 | 0.15 | 82 | 997.5 |
| 20260506224817 | 25 | 19 | 3.2 | 9.7 | 0.00 | 0.15 | 0.15 | 82 | 997.7 |
| 20260506224803 | 25 | 17 | 3.2 | 9.7 | 0.00 | 0.15 | 0.15 | 82 | 997.7 |
| 20260506224706 | 26 | 11 | 3.2 | 9.7 | 0.00 | 0.15 | 0.15 | 82 | 997.6 |
| 20260506224505 | 26 | 14 | 3.2 | 9.7 | 0.00 | 0.15 | 0.15 | 82 | 997.6 |
| 20260506224417 | 26 | 12 | 3.2 | 9.7 | 0.00 | 0.15 | 0.15 | 82 | 997.6 |
| 20260506224403 | 26 | 10 | 3.2 | 9.7 | 0.00 | 0.15 | 0.15 | 82 | 997.6 |
| 20260506224305 | 26 | 5 | 1.6 | 9.7 | 0.00 | 0.15 | 0.15 | 82 | 997.9 |
| 20260506224108 | 26 | 357 | 3.2 | 9.7 | 0.00 | 0.15 | 0.15 | 82 | 997.9 |
| 20260506224016 | 26 | 360 | 3.2 | 9.7 | 0.00 | 0.15 | 0.15 | 82 | 997.7 |
| 20260506224004 | 26 | 3 | 3.2 | 9.7 | 0.00 | 0.15 | 0.15 | 82 | 997.7 |
| 20260506223905 | 26 | 3 | 6.4 | 9.7 | 0.00 | 0.15 | 0.15 | 81 | 997.8 |
| 20260506223704 | 26 | 11 | 4.8 | 12.9 | 0.00 | 0.15 | 0.15 | 81 | 997.6 |
| 20260506223615 | 26 | 15 | 3.2 | 12.9 | 0.00 | 0.15 | 0.15 | 81 | 997.6 |
| 20260506223604 | 26 | 17 | 3.2 | 12.9 | 0.00 | 0.15 | 0.15 | 81 | 997.6 |
| 20260506223504 | 26 | 12 | 6.4 | 12.9 | 0.00 | 0.15 | 0.15 | 81 | 997.4 |
| 20260506223316 | 26 | 11 | 6.4 | 12.9 | 0.00 | 0.15 | 0.15 | 81 | 997.6 |
| 20260506223304 | 26 | 9 | 6.4 | 12.9 | 0.00 | 0.15 | 0.15 | 81 | 997.6 |
| 20260506223204 | 26 | 7 | 6.4 | 12.9 | 0.00 | 0.15 | 0.15 | 81 | 997.7 |
| 20260506223004 | 26 | 5 | 6.4 | 11.3 | 0.00 | 0.15 | 0.15 | 81 | 997.6 |
| 20260506222905 | 26 | 3 | 4.8 | 9.7 | 0.00 | 0.15 | 0.15 | 81 | 997.7 |
| 20260506222803 | 26 | 8 | 6.4 | 9.7 | 0.00 | 0.15 | 0.15 | 81 | 997.6 |
| 20260506222705 | 26 | 12 | 4.8 | 9.7 | 0.00 | 0.15 | 0.15 | 81 | 997.4 |
| 20260506222603 | 26 | 11 | 4.8 | 9.7 | 0.00 | 0.15 | 0.15 | 81 | 997.6 |
| 20260506222515 | 26 | 8 | 4.8 | 9.7 | 0.00 | 0.15 | 0.15 | 82 | 997.6 |
| 20260506222504 | 26 | 11 | 4.8 | 9.7 | 0.00 | 0.15 | 0.15 | 82 | 997.6 |
| 20260506222404 | 26 | 20 | 3.2 | 6.4 | 0.00 | 0.15 | 0.15 | 82 | 997.6 |
| 20260506222203 | 26 | 19 | 3.2 | 3.2 | 0.00 | 0.15 | 0.15 | 81 | 998.0 |
| 20260506222105 | 26 | 20 | 3.2 | 6.4 | 0.00 | 0.15 | 0.15 | 81 | 997.7 |
| 20260506222004 | 26 | 23 | 3.2 | 6.4 | 0.00 | 0.15 | 0.15 | 81 | 997.8 |
| 20260506221904 | 26 | 25 | 3.2 | 6.4 | 0.00 | 0.15 | 0.15 | 81 | 997.8 |
| 20260506221803 | 26 | 18 | 1.6 | 6.4 | 0.00 | 0.15 | 0.15 | 81 | 997.4 |
| 20260506221703 | 26 | 15 | 3.2 | 6.4 | 0.00 | 0.15 | 0.15 | 81 | 997.6 |
| 20260506221603 | 26 | 4 | 3.2 | 9.7 | 0.00 | 0.15 | 0.15 | 81 | 997.7 |
| 20260506221507 | 26 | 2 | 1.6 | 9.7 | 0.00 | 0.15 | 0.15 | 81 | 997.4 |
| 20260506221404 | 26 | 358 | 3.2 | 9.7 | 0.00 | 0.15 | 0.15 | 81 | 997.5 |
| 20260506221203 | 26 | 355 | 3.2 | 9.7 | 0.00 | 0.15 | 0.15 | 81 | 997.4 |
| 20260506221106 | 26 | 358 | 4.8 | 9.7 | 0.00 | 0.15 | 0.15 | 81 | 997.6 |
| 20260506221005 | 26 | 360 | 3.2 | 9.7 | 0.00 | 0.15 | 0.15 | 81 | 997.1 |
| 20260506220905 | 26 | 2 | 4.8 | 9.7 | 0.00 | 0.15 | 0.15 | 81 | 997.3 |
| 20260506220804 | 26 | 7 | 3.2 | 11.3 | 0.00 | 0.15 | 0.15 | 81 | 997.3 |
| 20260506220704 | 26 | 4 | 3.2 | 11.3 | 0.00 | 0.15 | 0.15 | 81 | 997.2 |
| 20260506220618 | 26 | 4 | 4.8 | 11.3 | 0.00 | 0.15 | 0.15 | 81 | 997.3 |
| 20260506220604 | 26 | 3 | 6.4 | 11.3 | 0.00 | 0.15 | 0.15 | 81 | 997.2 |
| 20260506220503 | 26 | 2 | 4.8 | 11.3 | 0.00 | 0.15 | 0.15 | 81 | 997.2 |
| 20260506220304 | 26 | 357 | 6.4 | 11.3 | 0.00 | 0.15 | 0.15 | 81 | 996.9 |
| 20260506220218 | 26 | 358 | 3.2 | 11.3 | 0.00 | 0.15 | 0.15 | 81 | 997.0 |
| 20260506220204 | 26 | 360 | 6.4 | 11.3 | 0.00 | 0.15 | 0.15 | 81 | 997.2 |
| 20260506220106 | 26 | 6 | 4.8 | 11.3 | 0.00 | 0.15 | 0.15 | 81 | 997.3 |
| 20260506215903 | 26 | 4 | 4.8 | 11.3 | 0.00 | 0.15 | 0.15 | 81 | 997.1 |
| 20260506215805 | 26 | 2 | 4.8 | 11.3 | 0.00 | 0.15 | 0.15 | 81 | 997.0 |
| 20260506215703 | 26 | 1 | 4.8 | 11.3 | 0.00 | 0.15 | 0.15 | 81 | 996.9 |
| 20260506215603 | 26 | 3 | 6.4 | 11.3 | 0.00 | 0.15 | 0.15 | 81 | 996.9 |
| 20260506215503 | 26 | 2 | 3.2 | 11.3 | 0.00 | 0.15 | 0.15 | 81 | 996.9 |
| 20260506215416 | 26 | 5 | 6.4 | 11.3 | 0.00 | 0.15 | 0.15 | 81 | 997.1 |
| 20260506215408 | 26 | 7 | 6.4 | 11.3 | 0.00 | 0.15 | 0.15 | 81 | 997.0 |
| 20260506215306 | 26 | 8 | 8.0 | 11.3 | 0.00 | 0.15 | 0.15 | 81 | 997.0 |
| 20260506215105 | 26 | 3 | 3.2 | 6.4 | 0.00 | 0.15 | 0.15 | 81 | 997.1 |
| 20260506215003 | 26 | 11 | 3.2 | 6.4 | 0.00 | 0.15 | 0.15 | 81 | 996.9 |
| 20260506214905 | 26 | 6 | 3.2 | 11.3 | 0.00 | 0.15 | 0.15 | 81 | 996.9 |
| 20260506214804 | 26 | 17 | 4.8 | 11.3 | 0.00 | 0.15 | 0.15 | 81 | 997.0 |
| 20260506214705 | 26 | 13 | 3.2 | 11.3 | 0.00 | 0.15 | 0.15 | 80 | 997.0 |
| 20260506214604 | 26 | 10 | 3.2 | 11.3 | 0.00 | 0.15 | 0.15 | 80 | 997.1 |
| 20260506214504 | 26 | 5 | 4.8 | 14.5 | 0.00 | 0.15 | 0.15 | 80 | 997.0 |
| 20260506214403 | 26 | 10 | 6.4 | 14.5 | 0.00 | 0.15 | 0.15 | 80 | 997.0 |
| 20260506214304 | 26 | 1 | 4.8 | 14.5 | 0.00 | 0.15 | 0.15 | 80 | 997.0 |
| 20260506214203 | 26 | 359 | 3.2 | 14.5 | 0.00 | 0.15 | 0.15 | 80 | 996.9 |
| 20260506214103 | 26 | 359 | 4.8 | 14.5 | 0.00 | 0.15 | 0.15 | 80 | 996.9 |
| 20260506214004 | 26 | 355 | 6.4 | 14.5 | 0.00 | 0.15 | 0.15 | 80 | 997.1 |
| 20260506213903 | 26 | 349 | 4.8 | 9.7 | 0.00 | 0.15 | 0.15 | 80 | 997.3 |
| 20260506213805 | 26 | 350 | 3.2 | 9.7 | 0.00 | 0.15 | 0.15 | 80 | 997.3 |
| 20260506213605 | 26 | 351 | 3.2 | 9.7 | 0.00 | 0.15 | 0.15 | 79 | 997.4 |
| 20260506213504 | 26 | 354 | 3.2 | 9.7 | 0.00 | 0.15 | 0.15 | 79 | 997.2 |
| 20260506213413 | 26 | 360 | 4.8 | 9.7 | 0.00 | 0.15 | 0.15 | 79 | 997.4 |
| 20260506213404 | 27 | 3 | 4.8 | 9.7 | 0.00 | 0.15 | 0.15 | 79 | 997.2 |
| 20260506213304 | 27 | 9 | 4.8 | 9.7 | 0.00 | 0.15 | 0.15 | 79 | 997.3 |
| 20260506213104 | 27 | 7 | 6.4 | 11.3 | 0.00 | 0.15 | 0.15 | 79 | 997.5 |
| 20260506213005 | 27 | 2 | 3.2 | 11.3 | 0.00 | 0.15 | 0.15 | 79 | 997.3 |
| 20260506212916 | 27 | 357 | 6.4 | 12.9 | 0.00 | 0.15 | 0.15 | 79 | 997.4 |
| 20260506212904 | 27 | 355 | 6.4 | 12.9 | 0.00 | 0.15 | 0.15 | 79 | 997.4 |
| 20260506212804 | 27 | 353 | 3.2 | 12.9 | 0.00 | 0.15 | 0.15 | 79 | 997.3 |
| 20260506212603 | 27 | 349 | 6.4 | 12.9 | 0.00 | 0.15 | 0.15 | 79 | 997.5 |
| 20260506212503 | 27 | 356 | 6.4 | 12.9 | 0.00 | 0.15 | 0.15 | 78 | 997.2 |
| 20260506212403 | 27 | 357 | 6.4 | 12.9 | 0.00 | 0.15 | 0.15 | 78 | 997.4 |
| 20260506212306 | 27 | 357 | 4.8 | 11.3 | 0.00 | 0.15 | 0.15 | 78 | 997.4 |
| 20260506212205 | 27 | 357 | 6.4 | 11.3 | 0.00 | 0.15 | 0.15 | 78 | 997.4 |
| 20260506212103 | 27 | 4 | 4.8 | 11.3 | 0.00 | 0.15 | 0.15 | 78 | 997.4 |
| 20260506212005 | 27 | 1 | 6.4 | 11.3 | 0.00 | 0.15 | 0.15 | 78 | 997.3 |
| 20260506211917 | 27 | 1 | 6.4 | 9.7 | 0.00 | 0.15 | 0.15 | 78 | 997.3 |
| 20260506211903 | 27 | 3 | 6.4 | 9.7 | 0.00 | 0.15 | 0.15 | 78 | 997.3 |
| 20260506211816 | 27 | 1 | 6.4 | 9.7 | 0.00 | 0.15 | 0.15 | 78 | 997.6 |
| 20260506211805 | 27 | 1 | 4.8 | 9.7 | 0.00 | 0.15 | 0.15 | 78 | 997.6 |
| 20260506211715 | 27 | 4 | 3.2 | 9.7 | 0.00 | 0.15 | 0.15 | 78 | 997.5 |
| 20260506211404 | 27 | 7 | 3.2 | 9.7 | 0.00 | 0.15 | 0.15 | 78 | 997.5 |
| 20260506211304 | 27 | 9 | 6.4 | 9.7 | 0.00 | 0.15 | 0.15 | 78 | 997.8 |
| 20260506211203 | 27 | 3 | 6.4 | 9.7 | 0.00 | 0.15 | 0.15 | 77 | 997.6 |
| 20260506211107 | 27 | 1 | 3.2 | 9.7 | 0.00 | 0.15 | 0.15 | 77 | 997.7 |
| 20260506211003 | 27 | 1 | 4.8 | 9.7 | 0.00 | 0.15 | 0.15 | 77 | 997.7 |
| 20260506210904 | 27 | 356 | 3.2 | 9.7 | 0.00 | 0.15 | 0.15 | 77 | 997.9 |
| 20260506210817 | 27 | 355 | 3.2 | 9.7 | 0.00 | 0.15 | 0.15 | 77 | 997.6 |
| 20260506210804 | 27 | 354 | 3.2 | 9.7 | 0.00 | 0.15 | 0.15 | 77 | 997.6 |
| 20260506210715 | 27 | 356 | 4.8 | 11.3 | 0.00 | 0.15 | 0.15 | 77 | 997.8 |
| 20260506210403 | 27 | 351 | 4.8 | 12.9 | 0.00 | 0.15 | 0.15 | 77 | 997.7 |
| 20260506210303 | 27 | 353 | 6.4 | 12.9 | 0.00 | 0.15 | 0.15 | 76 | 997.6 |
| 20260506210203 | 27 | 351 | 6.4 | 12.9 | 0.00 | 0.15 | 0.15 | 76 | 997.6 |
| 20260506210104 | 27 | 353 | 3.2 | 9.7 | 0.00 | 0.15 | 0.15 | 76 | 997.5 |
| 20260506210004 | 27 | 357 | 4.8 | 9.7 | 0.00 | 0.15 | 0.15 | 76 | 997.9 |
| 20260506205904 | 27 | 358 | 3.2 | 11.3 | 0.00 | 0.15 | 0.15 | 76 | 997.6 |
| 20260506205805 | 27 | 1 | 3.2 | 11.3 | 0.00 | 0.15 | 0.15 | 75 | 997.7 |
| 20260506205704 | 28 | 9 | 3.2 | 11.3 | 0.00 | 0.15 | 0.15 | 75 | 997.7 |
| 20260506205604 | 28 | 7 | 3.2 | 11.3 | 0.00 | 0.15 | 0.15 | 75 | 997.7 |
| 20260506205510 | 28 | 6 | 6.4 | 11.3 | 0.00 | 0.15 | 0.15 | 75 | 997.8 |
| 20260506205404 | 28 | 11 | 4.8 | 11.3 | 0.00 | 0.15 | 0.15 | 75 | 997.8 |
| 20260506205306 | 28 | 14 | 6.4 | 11.3 | 0.00 | 0.15 | 0.15 | 75 | 997.8 |
| 20260506205203 | 28 | 9 | 3.2 | 11.3 | 0.00 | 0.15 | 0.15 | 75 | 997.7 |
| 20260506205105 | 28 | 12 | 3.2 | 11.3 | 0.00 | 0.15 | 0.15 | 74 | 997.9 |
| 20260506204804 | 28 | 342 | 3.2 | 11.3 | 0.00 | 0.15 | 0.15 | 74 | 998.1 |
| 20260506204704 | 28 | 345 | 3.2 | 11.3 | 0.00 | 0.15 | 0.15 | 74 | 998.1 |
| 20260506204603 | 28 | 340 | 4.8 | 11.3 | 0.00 | 0.15 | 0.15 | 74 | 998.0 |
| 20260506204505 | 28 | 343 | 6.4 | 11.3 | 0.00 | 0.15 | 0.15 | 74 | 998.1 |
| 20260506204403 | 28 | 350 | 8.0 | 11.3 | 0.00 | 0.15 | 0.15 | 74 | 998.1 |
| 20260506204304 | 28 | 351 | 4.8 | 11.3 | 0.00 | 0.15 | 0.15 | 74 | 998.3 |
| 20260506204207 | 28 | 345 | 4.8 | 11.3 | 0.00 | 0.15 | 0.15 | 74 | 998.4 |
| 20260506204104 | 28 | 349 | 4.8 | 11.3 | 0.00 | 0.15 | 0.15 | 74 | 998.4 |
| 20260506204006 | 28 | 349 | 6.4 | 11.3 | 0.00 | 0.15 | 0.15 | 73 | 998.3 |
| 20260506203904 | 28 | 342 | 3.2 | 12.9 | 0.00 | 0.15 | 0.15 | 73 | 998.2 |
| 20260506203804 | 28 | 347 | 6.4 | 14.5 | 0.00 | 0.15 | 0.15 | 73 | 998.4 |
| 20260506203704 | 28 | 353 | 6.4 | 14.5 | 0.00 | 0.15 | 0.15 | 73 | 998.4 |
| 20260506203603 | 28 | 351 | 6.4 | 14.5 | 0.00 | 0.15 | 0.15 | 73 | 998.2 |
| 20260506203505 | 28 | 350 | 6.4 | 14.5 | 0.00 | 0.15 | 0.15 | 73 | 998.5 |
| 20260506203419 | 28 | 349 | 8.0 | 17.7 | 0.00 | 0.15 | 0.15 | 73 | 998.5 |
| 20260506203403 | 28 | 348 | 9.7 | 17.7 | 0.00 | 0.15 | 0.15 | 73 | 998.3 |
| 20260506203304 | 28 | 339 | 4.8 | 17.7 | 0.00 | 0.15 | 0.15 | 73 | 998.6 |
| 20260506203216 | 28 | 335 | 4.8 | 17.7 | 0.00 | 0.15 | 0.15 | 73 | 998.5 |
| 20260506203104 | 28 | 335 | 8.0 | 17.7 | 0.00 | 0.15 | 0.15 | 73 | 998.4 |
| 20260506202905 | 28 | 340 | 8.0 | 14.5 | 0.00 | 0.15 | 0.15 | 73 | 998.3 |
| 20260506202804 | 28 | 343 | 8.0 | 14.5 | 0.00 | 0.15 | 0.15 | 73 | 998.2 |
| 20260506202706 | 28 | 346 | 6.4 | 14.5 | 0.00 | 0.15 | 0.15 | 73 | 998.4 |
| 20260506202605 | 28 | 343 | 8.0 | 17.7 | 0.00 | 0.15 | 0.15 | 72 | 998.4 |
| 20260506202518 | 28 | 338 | 8.0 | 17.7 | 0.00 | 0.15 | 0.15 | 72 | 998.5 |
| 20260506202404 | 28 | 336 | 8.0 | 17.7 | 0.00 | 0.15 | 0.15 | 72 | 998.5 |
| 20260506202313 | 28 | 339 | 4.8 | 17.7 | 0.00 | 0.15 | 0.15 | 72 | 998.6 |
| 20260506202204 | 28 | 336 | 6.4 | 20.9 | 0.00 | 0.15 | 0.15 | 72 | 998.7 |
| 20260506202005 | 28 | 345 | 4.8 | 20.9 | 0.00 | 0.15 | 0.15 | 72 | 998.7 |
| 20260506201904 | 28 | 354 | 9.7 | 20.9 | 0.00 | 0.15 | 0.15 | 72 | 998.6 |
| 20260506201805 | 28 | 349 | 9.7 | 20.9 | 0.00 | 0.15 | 0.15 | 72 | 998.7 |
| 20260506201705 | 28 | 354 | 12.9 | 20.9 | 0.00 | 0.15 | 0.15 | 72 | 998.6 |
| 20260506201604 | 28 | 345 | 9.7 | 24.1 | 0.00 | 0.15 | 0.15 | 72 | 998.5 |
| 20260506201503 | 28 | 339 | 6.4 | 24.1 | 0.00 | 0.15 | 0.15 | 72 | 998.7 |
| 20260506201403 | 28 | 330 | 11.3 | 24.1 | 0.00 | 0.15 | 0.15 | 72 | 998.3 |
| 20260506201303 | 29 | 338 | 6.4 | 24.1 | 0.00 | 0.15 | 0.15 | 71 | 998.5 |
| 20260506201205 | 29 | 337 | 9.7 | 24.1 | 0.00 | 0.15 | 0.15 | 71 | 998.7 |
| 20260506201104 | 29 | 349 | 12.9 | 24.1 | 0.00 | 0.15 | 0.15 | 71 | 998.6 |
| 20260506201003 | 29 | 354 | 11.3 | 20.9 | 0.00 | 0.15 | 0.15 | 71 | 998.5 |
| 20260506200903 | 29 | 358 | 6.4 | 20.9 | 0.00 | 0.15 | 0.15 | 71 | 998.5 |
| 20260506200804 | 29 | 350 | 4.8 | 20.9 | 0.00 | 0.15 | 0.15 | 71 | 998.1 |
| 20260506200703 | 29 | 344 | 6.4 | 20.9 | 0.00 | 0.15 | 0.15 | 71 | 998.4 |
| 20260506200603 | 29 | 338 | 12.9 | 20.9 | 0.00 | 0.15 | 0.15 | 71 | 998.4 |
| 20260506200505 | 29 | 340 | 9.7 | 17.7 | 0.00 | 0.15 | 0.15 | 71 | 998.3 |
| 20260506200405 | 29 | 341 | 3.2 | 17.7 | 0.00 | 0.15 | 0.15 | 71 | 998.4 |
| 20260506200304 | 29 | 344 | 6.4 | 17.7 | 0.00 | 0.15 | 0.15 | 71 | 998.2 |
| 20260506200214 | 29 | 350 | 6.4 | 17.7 | 0.00 | 0.15 | 0.15 | 71 | 998.5 |
| 20260506200205 | 29 | 354 | 6.4 | 17.7 | 0.00 | 0.15 | 0.15 | 71 | 998.2 |
| 20260506200104 | 29 | 3 | 6.4 | 17.7 | 0.00 | 0.15 | 0.15 | 71 | 998.4 |
| 20260506195904 | 29 | 5 | 4.8 | 17.7 | 0.00 | 0.15 | 0.15 | 71 | 998.2 |
| 20260506195804 | 29 | 8 | 6.4 | 17.7 | 0.00 | 0.15 | 0.15 | 71 | 998.3 |
| 20260506195704 | 29 | 3 | 11.3 | 17.7 | 0.00 | 0.15 | 0.15 | 71 | 998.3 |
| 20260506195605 | 29 | 355 | 6.4 | 20.9 | 0.00 | 0.15 | 0.15 | 71 | 998.3 |
| 20260506195505 | 29 | 360 | 4.8 | 20.9 | 0.00 | 0.15 | 0.15 | 71 | 998.2 |
| 20260506195404 | 29 | 357 | 6.4 | 20.9 | 0.00 | 0.15 | 0.15 | 71 | 998.5 |
| 20260506195316 | 29 | 353 | 6.4 | 20.9 | 0.00 | 0.15 | 0.15 | 71 | 998.3 |
| 20260506195307 | 29 | 355 | 6.4 | 20.9 | 0.00 | 0.15 | 0.15 | 71 | 998.3 |
| 20260506195205 | 29 | 357 | 6.4 | 20.9 | 0.00 | 0.15 | 0.15 | 71 | 998.1 |
| 20260506195004 | 29 | 7 | 9.7 | 20.9 | 0.00 | 0.15 | 0.15 | 71 | 998.4 |
| 20260506194903 | 29 | 14 | 8.0 | 22.5 | 0.00 | 0.15 | 0.15 | 71 | 998.1 |
| 20260506194807 | 29 | 13 | 11.3 | 22.5 | 0.00 | 0.15 | 0.15 | 71 | 998.2 |
| 20260506194704 | 29 | 6 | 8.0 | 22.5 | 0.00 | 0.15 | 0.15 | 71 | 998.2 |
| 20260506194604 | 29 | 1 | 11.3 | 22.5 | 0.00 | 0.15 | 0.15 | 71 | 998.2 |
| 20260506194404 | 29 | 345 | 12.9 | 22.5 | 0.00 | 0.15 | 0.15 | 71 | 998.1 |
| 20260506194304 | 29 | 352 | 12.9 | 22.5 | 0.00 | 0.15 | 0.15 | 71 | 998.3 |
| 20260506194203 | 29 | 356 | 12.9 | 22.5 | 0.00 | 0.15 | 0.15 | 71 | 998.3 |
| 20260506194103 | 29 | 355 | 9.7 | 20.9 | 0.00 | 0.15 | 0.15 | 71 | 998.3 |
| 20260506194004 | 29 | 356 | 12.9 | 17.7 | 0.00 | 0.15 | 0.15 | 71 | 998.2 |
| 20260506193905 | 29 | 360 | 12.9 | 17.7 | 0.00 | 0.15 | 0.15 | 70 | 998.1 |
| 20260506193807 | 29 | 360 | 9.7 | 22.5 | 0.00 | 0.15 | 0.15 | 70 | 998.2 |
| 20260506193705 | 29 | 359 | 8.0 | 22.5 | 0.00 | 0.15 | 0.15 | 70 | 998.1 |
| 20260506193605 | 29 | 355 | 8.0 | 22.5 | 0.00 | 0.15 | 0.15 | 70 | 998.1 |
| 20260506193504 | 29 | 350 | 8.0 | 24.1 | 0.00 | 0.15 | 0.15 | 70 | 998.1 |
| 20260506193404 | 29 | 346 | 8.0 | 24.1 | 0.00 | 0.15 | 0.15 | 71 | 998.1 |
| 20260506193305 | 29 | 342 | 9.7 | 24.1 | 0.00 | 0.15 | 0.15 | 71 | 998.2 |
| 20260506193205 | 29 | 343 | 9.7 | 24.1 | 0.00 | 0.15 | 0.15 | 71 | 998.1 |
| 20260506193104 | 29 | 347 | 9.7 | 24.1 | 0.00 | 0.15 | 0.15 | 71 | 998.1 |
| 20260506193004 | 29 | 354 | 11.3 | 25.7 | 0.00 | 0.15 | 0.15 | 70 | 998.2 |
| 20260506192905 | 29 | 1 | 12.9 | 25.7 | 0.00 | 0.15 | 0.15 | 70 | 998.2 |
| 20260506192803 | 29 | 1 | 12.9 | 25.7 | 0.00 | 0.15 | 0.15 | 70 | 998.1 |
| 20260506192703 | 29 | 359 | 9.7 | 25.7 | 0.00 | 0.15 | 0.15 | 70 | 998.2 |
| 20260506192604 | 29 | 359 | 12.9 | 25.7 | 0.00 | 0.15 | 0.15 | 70 | 998.4 |
| 20260506192416 | 29 | 354 | 4.8 | 22.5 | 0.00 | 0.15 | 0.15 | 70 | 998.5 |
| 20260506192403 | 29 | 353 | 4.8 | 22.5 | 0.00 | 0.15 | 0.15 | 70 | 998.5 |
| 20260506192305 | 29 | 356 | 11.3 | 22.5 | 0.00 | 0.15 | 0.15 | 70 | 998.4 |
| 20260506192104 | 29 | 348 | 8.0 | 29.0 | 0.00 | 0.15 | 0.15 | 70 | 998.4 |